GFSNE_850_spd_036.txt.gz
Wind_Speed
17 14 13 14 15 15 16 18 19 20 26 25 26 26 32 33 35 34 34 33 32 31 29 28 27 27 28 30 29 30 31 29 31 32 32 32 33 34
15 13 12 13 15 16 17 19 21 22 23 28 31 32 34 36 34 33 31 30 29 28 26 25 27 28 28 27 28 28 31 31 32 31 33 34 35 35
14 12 13 14 16 18 20 21 21 23 29 33 32 32 33 34 34 32 32 31 29 26 30 25 26 26 26 29 29 30 31 32 32 32 33 34 34 35
11 12 12 15 17 19 21 22 23 23 28 33 33 32 34 34 34 36 32 29 32 27 28 26 27 27 28 28 30 28 29 31 33 33 34 34 34 36
11 12 15 18 20 21 22 24 24 25 26 29 33 33 34 35 37 36 36 36 33 30 29 30 29 28 27 27 28 30 31 30 31 33 34 34 34 34
16 18 19 20 22 22 22 23 24 25 25 28 31 32 34 36 38 40 41 37 36 33 33 32 28 27 30 30 29 29 30 32 33 32 32 32 33 33
18 16 19 20 21 21 21 22 22 24 26 27 29 32 36 38 41 40 40 38 38 36 36 32 37 40 36 34 33 33 34 32 30 31 33 34 35 35
15 17 18 20 20 21 20 18 19 22 24 27 30 33 38 40 39 37 35 37 41 36 38 46 39 42 41 37 33 31 31 31 32 33 34 34 33 34
15 18 19 21 21 21 22 24 21 20 22 25 31 34 37 36 32 33 33 33 38 43 41 48 41 43 37 34 35 35 33 31 31 30 30 31 32 31
16 18 20 20 20 20 20 20 22 24 26 29 33 35 34 30 30 31 35 39 38 37 37 44 41 38 39 41 39 31 23 22 25 26 27 29 32 34
16 16 18 20 20 18 19 21 25 28 29 31 30 26 25 26 28 30 31 31 38 40 38 36 37 43 45 43 35 29 33 32 31 32 33 32 32 32
18 18 21 23 20 16 19 25 30 32 29 26 29 30 29 27 25 23 25 30 34 35 33 34 41 39 30 36 33 41 37 35 34 32 31 31 31 32
23 24 23 20 16 18 20 24 27 22 26 29 30 27 27 27 25 24 27 29 32 35 36 31 39 39 34 44 45 42 42 39 37 36 33 29 27 27
23 22 20 18 19 21 23 21 19 21 23 24 25 27 28 27 26 28 28 28 28 33 35 32 36 34 37 42 47 45 43 42 40 38 31 24 26 27
19 18 19 22 24 25 21 19 18 18 20 23 25 27 27 28 28 28 28 28 31 32 31 29 31 31 32 38 44 46 45 44 35 31 35 34 34 31
18 21 23 25 23 20 17 14 14 16 20 23 25 27 27 28 29 30 33 32 36 36 30 29 29 29 34 37 38 44 42 41 40 37 37 38 36 34
20 23 23 20 17 16 14 13 15 18 20 23 25 26 27 30 31 31 31 33 34 37 37 30 30 32 34 34 37 38 38 39 40 41 41 42 39 36
18 20 18 17 17 16 16 17 18 20 22 24 23 26 30 31 33 33 31 30 33 34 36 36 36 37 37 38 29 33 39 42 43 43 40 40 42 37
16 16 16 16 15 15 17 19 22 22 23 21 25 28 29 31 32 32 31 31 35 36 36 38 38 37 37 39 41 30 34 40 38 38 37 38 42 40
14 14 14 14 14 16 19 21 23 23 19 22 26 28 27 30 33 32 32 34 35 37 41 38 36 37 36 40 47 44 36 35 38 40 40 38 38 37
14 12 12 13 15 17 20 22 23 20 20 24 25 27 30 33 33 34 34 33 34 36 40 41 38 34 34 36 37 43 40 32 31 34 34 37 36 35
13 12 12 14 16 19 21 22 21 17 21 24 26 30 33 34 35 36 36 35 36 38 40 41 39 35 35 35 39 41 41 37 31 28 26 24 28 25
12 13 14 16 18 20 21 23 20 18 21 24 27 33 35 36 34 33 34 33 34 35 37 38 37 35 36 34 33 37 38 37 36 36 29 20 20 21

GFSNE_850_spd_042.txt.gz
Wind_Speed
36 33 32 25 23 21 18 18 17 16 17 18 16 19 20 26 30 33 34 34 34 33 32 31 31 30 27 26 27 27 28 28 28 29 28 28 29 30
34 32 25 26 20 16 14 14 15 17 19 18 22 25 27 29 31 33 33 34 33 33 32 31 31 29 27 27 27 27 28 28 30 29 31 31 30 30
31 27 24 20 19 14 14 14 16 20 23 25 26 26 28 29 31 31 32 33 33 32 32 32 32 28 26 27 27 28 28 29 29 30 31 30 30 30
28 25 23 20 20 18 14 15 20 22 24 30 28 29 30 29 32 34 32 33 34 33 31 29 27 26 26 26 26 27 28 28 28 30 30 31 32 32
24 23 20 16 13 14 18 18 20 18 23 27 30 30 31 32 33 35 35 36 36 34 29 26 26 24 24 24 24 26 28 30 31 32 32 32 32 33
19 15 11 11 13 14 18 17 17 22 23 25 28 30 31 32 34 36 40 38 39 32 28 25 25 26 27 26 26 27 29 30 31 31 32 33 33 34
12 10 10 13 15 14 15 16 19 21 23 25 28 30 33 33 34 36 39 39 35 34 31 30 34 34 29 27 28 28 29 29 28 28 30 31 32 33
9 10 10 11 11 13 16 17 19 21 24 26 26 28 32 33 35 35 33 35 38 34 36 40 37 37 33 32 29 28 29 29 29 30 31 31 32 33
8 7 8 12 13 16 17 18 19 19 18 20 26 28 31 32 29 30 32 33 36 39 39 46 38 39 35 34 32 31 30 27 26 27 28 29 29 30
7 8 10 13 14 16 18 18 18 19 20 23 26 28 28 25 26 30 33 37 38 37 33 43 40 41 39 39 34 28 24 24 26 26 26 27 28 30
9 10 13 14 16 16 16 17 19 21 23 24 23 22 23 23 24 27 29 31 37 37 34 30 38 43 45 42 32 32 35 32 31 30 31 31 31 31
11 13 15 16 15 11 13 18 24 25 22 22 21 19 18 19 21 22 26 29 31 34 27 30 38 38 31 38 39 43 38 33 31 30 31 32 32 32
14 15 15 15 13 12 13 19 21 18 21 21 19 18 19 20 21 22 23 27 30 34 36 30 36 36 35 43 45 43 40 38 36 34 32 30 28 28
14 16 16 13 13 16 18 17 14 16 17 17 19 20 21 22 21 23 25 26 27 32 31 27 32 31 34 39 45 44 41 40 39 37 32 26 25 25
15 14 13 16 17 16 15 14 15 15 16 19 21 21 22 22 25 24 24 25 29 28 25 24 27 28 29 35 42 44 43 41 34 31 33 31 30 30
15 15 15 15 15 15 13 12 12 14 17 20 21 21 20 23 22 25 29 30 33 32 28 26 26 27 32 34 36 41 38 40 36 35 36 36 35 33
15 15 15 13 12 10 9 10 12 14 17 19 20 19 22 23 26 29 30 31 33 35 35 29 29 30 30 31 34 34 36 38 38 39 38 39 34 33
15 16 14 13 12 11 12 13 14 16 18 20 17 20 22 24 31 32 29 30 33 35 36 34 36 36 36 36 27 32 39 41 41 40 38 38 42 36
14 13 12 11 11 12 13 15 18 18 20 17 17 19 21 25 30 31 31 33 37 39 39 38 37 36 37 37 41 29 32 39 34 36 34 35 38 36
12 12 11 11 12 14 16 17 19 20 20 17 17 19 22 27 32 33 34 37 39 40 41 37 35 36 35 40 44 43 34 34 34 35 35 34 34 33
10 9 10 11 13 16 17 18 20 22 22 20 18 20 22 26 32 33 36 37 37 37 40 39 36 34 35 39 39 45 40 32 31 31 30 31 32 31
10 9 10 12 15 17 18 19 21 23 23 19 18 20 24 27 32 34 36 37 37 37 39 40 41 39 38 36 41 43 41 38 31 28 25 23 25 26
10 10 11 13 16 18 20 22 23 25 24 19 18 20 25 31 33 35 38 38 39 41 41 43 41 40 37 35 36 39 38 37 37 39 31 24 21 21

GFSNE_850_spd_045.txt.gz
Wind_Speed
41 41 40 37 35 34 30 28 23 22 21 19 16 15 15 17 21 28 31 32 33 33 33 33 33 32 31 30 28 28 28 28 28 29 30 29 31 29
39 41 39 38 36 35 29 29 27 23 17 13 11 14 21 25 25 28 32 33 33 32 32 31 32 31 30 29 27 28 28 29 29 29 29 31 30 31
37 38 37 34 33 27 24 23 23 22 24 24 22 24 25 23 25 29 31 32 33 32 32 31 32 32 28 26 27 28 28 28 29 30 31 31 30 31
36 35 31 29 24 21 21 19 19 18 20 21 23 21 20 24 27 30 30 30 32 33 32 31 30 27 26 25 25 26 27 28 29 29 29 30 31 31
28 25 23 20 18 17 16 15 17 17 19 21 22 22 24 24 28 30 31 31 33 33 31 27 25 23 22 24 24 25 28 29 30 31 32 32 33 33
21 17 17 16 14 14 14 15 17 17 17 20 22 23 24 27 29 31 32 30 33 32 28 22 22 23 26 25 25 25 27 29 31 31 31 32 33 34
14 14 14 13 12 11 14 14 15 15 15 19 23 24 25 25 26 25 28 28 27 30 26 26 29 30 28 25 24 24 27 28 29 30 29 30 31 32
12 11 9 9 11 10 9 10 14 15 16 20 23 24 23 24 24 24 24 23 27 24 29 32 29 33 30 28 27 27 28 27 29 30 30 31 32 32
8 9 7 5 6 8 9 11 14 15 16 18 22 21 21 22 26 25 26 25 27 29 33 38 33 35 29 29 28 27 27 24 24 26 27 28 29 30
3 1 4 6 6 11 13 13 15 16 16 17 20 22 22 19 20 24 26 26 28 30 28 32 32 32 34 35 33 25 21 23 25 25 26 27 29 29
2 4 6 9 11 12 11 13 16 16 17 19 19 17 17 17 17 21 23 24 29 31 28 24 34 34 39 37 28 27 30 28 28 29 29 29 30 31
6 8 10 11 11 9 10 16 18 17 18 16 13 12 12 13 15 18 21 23 25 28 20 28 34 28 26 31 32 37 34 32 28 28 29 29 30 31
9 10 10 11 7 8 9 16 16 14 15 13 12 11 13 14 15 15 18 22 24 28 28 26 35 33 26 37 41 40 37 35 34 32 29 27 25 25
10 10 10 8 10 12 13 12 10 11 10 10 12 13 14 13 13 15 16 20 24 28 25 24 29 30 31 37 44 44 41 38 36 32 26 26 25 24
12 11 10 11 11 10 9 8 8 8 9 12 13 14 13 13 15 16 19 23 25 23 21 20 22 23 26 33 39 41 40 37 30 29 32 30 29 28
9 9 10 10 10 8 7 6 7 9 11 14 16 16 13 14 15 19 25 24 27 27 26 26 24 26 29 31 33 38 35 35 33 32 34 33 32 31
11 10 10 8 6 5 4 6 8 10 13 15 17 15 15 17 17 21 24 26 29 33 34 29 26 27 28 30 33 34 33 35 35 37 36 36 32 29
10 10 9 8 7 6 7 7 9 12 14 17 17 15 17 19 22 23 26 28 32 34 35 32 31 30 30 32 27 32 35 37 37 36 35 37 41 35
10 9 8 7 6 8 10 12 13 14 16 18 17 17 18 20 23 26 29 30 34 33 33 34 34 32 33 32 35 25 32 37 34 36 32 33 36 34
10 8 7 7 8 9 12 13 14 16 18 19 18 17 18 21 24 27 30 32 33 35 36 34 34 33 33 37 42 42 30 32 34 35 34 34 34 32
9 8 8 8 9 11 13 15 17 19 21 23 22 19 17 20 24 28 31 31 33 35 38 38 37 33 32 34 35 40 39 32 30 31 30 31 33 33
9 9 9 10 12 14 15 17 19 20 21 23 22 18 18 21 26 30 32 35 37 37 38 40 40 35 32 32 37 41 43 37 31 27 25 25 24 27
10 11 11 11 14 16 18 20 21 22 23 24 24 20 20 23 26 29 34 35 38 40 41 42 36 35 35 33 32 38 41 39 35 36 33 26 25 25

GFSNE_850_spd_048.txt.gz
Wind_Speed
42 45 47 44 45 44 40 36 33 29 29 27 26 24 25 26 25 24 24 30 30 31 33 33 34 34 34 34 35 34 33 29 29 29 29 30 31 31
40 42 43 42 43 39 37 36 33 32 27 24 26 26 21 23 23 29 33 33 32 33 32 34 34 34 35 36 35 32 28 28 28 29 30 31 33 32
35 34 36 38 39 38 37 32 28 26 26 24 22 24 27 30 30 30 29 28 32 33 34 32 33 34 34 34 32 28 27 27 28 29 30 31 31 32
31 31 33 34 32 26 20 18 18 20 21 23 23 24 25 25 26 25 26 29 31 32 32 31 31 31 29 28 27 25 26 27 27 28 28 29 30 31
26 26 27 24 21 19 19 19 17 20 20 19 19 20 21 20 21 22 24 26 27 28 29 29 27 25 24 25 26 27 28 28 29 29 30 31 32 33
18 17 14 13 15 16 17 16 16 16 17 19 18 17 19 18 19 18 17 18 21 23 26 24 22 22 23 24 24 26 27 28 29 29 29 30 31 33
11 11 12 12 13 13 14 13 14 15 15 14 14 12 10 11 12 14 17 19 22 22 21 18 19 22 23 24 26 26 26 28 29 30 29 29 30 31
11 10 10 11 11 11 12 9 9 12 12 12 13 12 11 12 12 14 17 18 21 17 15 23 23 25 26 26 26 27 27 28 29 29 30 31 32 32
7 8 9 9 9 7 8 9 11 13 15 14 13 12 12 13 17 20 14 18 23 21 21 27 25 26 24 26 28 28 27 26 26 26 27 28 29 30
6 3 3 3 5 8 10 12 13 13 13 14 13 13 14 14 12 16 19 19 21 21 18 27 23 23 25 27 29 24 18 21 22 23 26 27 28 30
2 1 4 7 9 9 9 12 12 11 14 16 17 17 16 16 15 16 17 16 20 21 20 20 22 23 32 32 23 24 27 25 24 25 26 28 30 30
4 6 8 8 8 5 8 10 11 11 13 14 11 11 11 11 13 15 17 18 18 23 12 23 28 24 20 28 23 29 29 31 29 29 28 27 27 29
7 8 9 10 10 10 11 10 13 13 11 12 10 9 10 11 13 13 15 18 20 24 25 22 32 31 26 31 38 36 34 34 35 32 30 26 22 22
8 9 9 10 10 11 11 12 11 10 9 9 9 10 11 12 13 14 15 18 22 26 22 22 29 28 31 37 40 38 37 35 35 32 25 26 27 26
9 10 10 11 11 10 9 8 7 6 7 9 11 12 14 13 14 15 15 20 24 23 20 21 26 28 29 34 40 39 39 36 27 28 30 29 29 29
9 9 10 10 9 7 6 6 5 7 9 11 13 15 15 14 15 16 19 22 27 27 27 27 26 25 29 31 33 38 36 34 32 29 31 32 30 29
10 10 9 8 7 6 5 6 7 9 11 13 15 17 16 16 17 18 20 24 28 31 33 27 24 26 28 30 35 35 33 34 34 34 32 35 34 31
10 9 8 7 5 5 6 7 9 10 12 15 17 18 18 19 20 20 22 24 28 31 32 31 29 30 32 33 27 32 34 37 36 33 31 34 39 32
9 9 7 6 6 6 8 9 11 12 14 16 18 20 21 21 21 22 23 26 29 30 31 31 29 28 32 33 31 27 32 36 34 33 31 30 35 35
10 9 8 7 8 8 10 12 13 15 16 18 20 21 22 22 23 23 25 29 31 32 34 32 31 30 30 35 40 40 28 28 32 36 36 34 35 33
10 10 10 9 10 11 12 14 16 17 19 21 22 23 23 22 24 24 27 29 31 34 35 34 34 31 32 35 35 37 36 31 31 33 35 33 34 35
11 11 12 12 13 14 15 17 19 20 21 23 25 24 24 25 25 26 27 30 33 36 37 38 37 35 34 32 38 42 43 41 35 32 28 27 29 30
13 14 13 14 15 16 17 19 21 23 24 25 25 25 27 28 25 26 29 31 35 37 37 40 35 36 37 37 35 39 42 44 41 39 35 28 27 28

GFSNE_850_spd_054.txt.gz
Wind_Speed
38 41 44 44 39 40 39 39 38 31 32 33 28 33 35 34 36 35 34 34 31 36 31 28 29 29 32 34 34 33 33 33 31 29 25 23 23 23
33 36 37 40 41 41 40 40 40 38 27 22 26 25 23 29 33 28 29 33 35 31 29 29 30 30 31 32 31 32 32 31 28 24 22 22 23 23
27 30 30 34 35 37 37 37 34 30 24 20 21 23 20 21 23 26 29 28 27 26 27 28 28 29 30 31 30 29 29 26 24 23 20 21 22 23
21 24 24 27 30 28 26 23 20 17 17 20 18 20 18 19 22 23 22 24 24 25 23 25 28 29 25 24 25 25 24 23 21 21 20 21 22 23
16 19 18 21 22 19 15 12 10 10 12 13 15 14 15 17 18 18 19 21 22 21 22 20 22 23 24 23 22 21 20 21 21 22 22 22 23 24
12 13 13 12 9 7 8 9 9 9 8 8 8 8 10 11 14 15 15 15 16 17 21 20 22 21 18 17 17 19 20 20 20 21 21 22 23 23
5 6 4 4 5 6 6 7 8 8 8 8 9 10 10 10 10 11 14 17 18 19 22 17 17 15 16 16 18 18 18 18 19 21 22 23 24 25
5 5 3 3 4 5 5 6 7 8 9 9 9 8 8 9 10 14 17 19 23 19 13 17 16 15 13 14 14 14 17 19 21 22 23 24 25 25
4 3 3 0 2 4 6 7 7 6 6 9 10 9 9 11 14 17 19 22 21 16 17 21 14 15 12 14 15 18 18 17 17 19 21 23 23 25
3 2 1 1 3 4 5 6 7 7 7 9 11 11 13 15 17 17 17 18 17 15 13 23 17 16 17 17 17 13 13 17 19 19 21 22 23 24
4 4 4 5 6 7 7 8 8 7 9 11 10 11 14 15 15 15 14 15 17 16 13 16 17 24 23 20 13 19 23 24 22 22 22 22 23 25
8 7 7 8 9 10 10 10 11 11 11 12 12 11 9 8 8 10 11 14 15 17 6 14 21 24 22 22 31 30 27 26 24 24 23 22 23 25
8 10 11 12 12 11 11 10 11 13 12 12 10 7 6 7 9 10 12 15 16 19 17 18 24 26 26 32 36 33 31 30 29 27 25 22 21 20
12 13 13 14 13 12 12 11 11 11 9 8 7 7 8 10 12 14 16 17 19 21 19 20 26 25 28 34 39 38 34 32 31 28 24 23 23 23
12 13 12 12 12 11 10 8 8 7 6 7 8 9 12 13 14 16 17 17 19 20 19 19 22 24 27 32 36 39 39 38 28 31 27 27 26 25
15 14 13 12 11 9 7 7 6 6 7 9 10 12 14 15 16 16 17 17 21 22 21 20 20 21 25 29 32 38 35 35 37 32 33 33 29 25
14 12 11 10 10 8 7 7 7 8 10 11 13 14 15 17 17 17 18 20 23 26 26 22 21 22 24 27 32 33 34 35 35 36 36 38 35 31
14 12 11 11 11 10 10 10 11 13 13 14 14 16 18 19 20 20 20 22 24 24 25 24 23 25 30 32 28 32 34 36 37 37 36 38 38 33
13 13 13 12 12 11 12 13 13 13 14 15 17 17 19 20 22 23 23 24 25 26 26 25 25 26 30 32 34 28 29 35 34 35 33 34 39 37
14 14 13 13 13 13 14 15 15 15 16 17 19 19 20 22 23 25 25 26 28 29 30 29 28 27 28 33 40 40 31 32 33 37 38 38 39 37
14 14 14 14 14 15 16 17 18 18 19 20 21 22 22 23 25 26 27 26 26 28 32 32 29 26 29 33 37 40 36 34 33 36 39 41 43 41
15 15 15 15 16 16 17 19 20 21 21 22 23 24 24 25 27 28 29 30 30 31 33 34 31 29 31 32 38 41 41 40 38 41 37 35 37 38
16 17 17 17 17 17 18 19 21 22 23 24 25 26 27 29 29 31 31 31 32 32 34 36 34 32 36 35 37 41 44 40 45 43 41 36 37 33

GFSNE_850_spd_057.txt.gz
Wind_Speed
30 33 34 35 35 39 42 38 40 30 37 39 37 37 40 43 41 42 37 35 36 31 32 33 34 35 32 29 30 31 29 28 29 29 26 23 20 20
25 26 28 30 31 32 34 32 36 39 34 26 29 32 31 36 37 37 32 29 31 34 33 32 30 29 28 28 29 27 26 25 26 24 22 20 20 20
23 23 25 24 24 27 27 28 26 27 31 26 23 21 22 21 25 28 27 29 30 28 25 26 24 25 26 26 26 25 23 22 23 22 20 18 18 19
17 19 20 19 20 22 25 25 24 22 18 20 18 23 23 21 23 25 24 22 21 20 22 24 23 22 24 22 20 21 22 22 19 18 17 17 18 19
14 14 14 15 18 20 19 17 14 11 9 13 15 17 17 17 18 18 16 17 18 19 19 19 18 18 20 22 22 19 17 17 17 18 18 18 19 19
12 13 12 11 12 11 8 6 4 5 7 9 9 10 12 13 14 14 15 16 16 16 15 16 20 21 21 20 16 17 18 18 18 18 17 18 19 19
5 5 5 5 3 2 2 2 3 3 3 3 5 8 11 12 12 11 12 13 13 16 16 18 19 15 13 14 15 15 15 14 14 16 17 19 20 22
4 3 2 2 2 2 3 4 5 5 4 5 6 6 6 7 9 10 11 13 15 13 14 16 13 12 10 12 12 11 11 13 16 17 17 19 20 22
5 3 2 2 3 4 5 5 5 6 6 7 8 8 9 11 11 13 15 17 19 15 16 16 8 6 8 8 9 11 12 10 11 13 17 19 20 20
5 4 4 5 6 6 7 8 8 8 9 9 10 10 11 12 14 15 16 17 15 11 12 16 9 6 8 10 11 6 6 12 12 15 19 22 24 24
6 7 7 8 9 11 11 11 10 10 10 10 10 9 11 13 14 14 13 12 13 11 11 14 7 14 14 9 4 7 14 15 17 16 19 21 23 23
8 8 9 9 10 10 11 10 11 11 10 11 12 12 11 8 7 8 8 10 12 11 2 9 15 17 13 12 15 19 19 19 18 20 20 22 22 24
12 12 12 12 10 10 11 10 10 11 11 11 10 8 6 6 7 9 10 12 14 16 14 15 19 20 19 24 26 25 24 23 22 20 19 16 17 19
12 12 12 12 12 12 12 11 10 11 9 7 6 6 7 9 11 13 14 16 18 19 17 19 23 22 23 27 31 28 28 25 25 20 22 21 17 19
14 14 14 13 12 11 10 9 9 7 6 6 6 8 9 11 12 14 16 16 18 18 18 19 20 21 22 26 30 30 31 28 22 25 24 23 23 20
14 13 13 12 12 11 9 7 6 6 7 8 9 11 12 13 13 14 16 16 18 18 18 19 19 20 23 25 26 30 28 30 28 26 26 27 26 24
14 12 12 11 10 9 8 8 8 8 10 12 13 14 13 14 15 15 17 18 20 21 20 19 19 20 23 26 29 30 30 30 29 29 28 32 29 27
15 14 12 12 11 10 10 10 11 13 14 13 13 14 15 16 17 17 18 20 22 22 22 21 21 23 25 29 28 29 29 33 32 33 32 35 35 27
14 13 12 12 12 11 11 12 14 13 14 14 15 16 17 18 18 19 20 21 23 24 23 22 22 23 27 33 31 25 29 32 37 36 29 31 35 33
14 14 13 12 11 12 12 14 15 15 15 16 17 17 18 20 21 21 21 24 25 26 27 26 26 24 26 32 36 38 32 36 33 32 33 32 34 34
12 12 13 13 13 13 14 14 16 17 17 18 19 19 20 21 23 23 24 25 26 27 30 29 25 24 26 28 35 39 35 30 28 32 34 35 39 39
13 13 13 13 13 14 15 15 17 18 19 19 20 21 22 24 25 26 26 29 29 30 31 30 27 27 28 30 36 39 38 33 30 31 31 31 35 35
13 14 14 14 14 15 16 17 18 19 20 21 22 23 24 27 27 28 29 29 30 31 31 32 32 32 34 33 33 36 39 39 39 40 38 35 38 37

GFSNE_850_spd_063.txt.gz
Wind_Speed
16 19 21 23 26 24 23 19 25 23 27 26 25 23 21 22 23 30 28 31 33 32 34 30 28 28 30 33 33 30 24 25 24 25 25 23 21 20
21 23 23 23 20 16 18 16 18 20 24 23 25 26 27 25 23 22 14 20 23 25 24 26 26 25 28 28 27 24 21 21 25 23 21 20 19 20
20 20 19 14 14 15 15 15 15 15 18 21 25 25 26 24 21 17 14 17 24 25 22 23 24 23 21 22 22 20 23 26 26 22 19 20 20 19
11 8 8 10 12 12 13 13 14 13 16 18 18 20 19 18 17 16 16 18 23 24 27 28 23 23 23 21 23 25 26 25 24 24 22 20 19 18
6 6 7 9 11 11 12 13 13 13 13 14 13 12 11 11 12 13 15 17 18 20 20 19 19 20 21 20 19 21 24 25 22 19 17 18 18 18
3 5 4 5 6 7 8 9 8 8 9 11 9 9 11 10 10 10 10 12 14 15 16 15 16 17 19 21 21 21 22 22 22 19 18 18 18 18
4 4 5 6 7 7 7 6 6 6 7 8 9 8 9 9 8 9 9 11 12 12 11 13 15 17 20 22 23 23 21 19 18 17 17 15 15 17
7 7 7 8 8 9 8 8 7 6 7 8 9 9 9 9 10 10 11 12 11 12 13 15 17 19 20 21 21 20 17 16 15 15 15 16 17 18
7 8 8 8 9 9 10 10 10 10 9 9 9 10 10 11 13 13 14 14 15 16 20 22 18 19 18 17 16 15 14 14 14 16 18 18 18 19
8 8 9 10 12 11 11 11 11 11 11 10 10 10 11 13 14 16 16 18 19 18 19 21 12 11 12 13 14 14 15 16 16 15 18 20 22 23
9 10 11 11 12 13 12 12 12 11 11 10 10 9 10 10 12 12 10 11 12 9 9 13 12 11 11 13 16 17 18 16 14 17 19 23 23 24
11 11 11 12 13 14 13 12 11 11 11 11 12 13 13 11 11 12 11 10 10 8 7 9 12 12 9 12 15 16 16 17 16 19 20 23 24 25
11 12 12 12 12 12 13 12 12 12 11 12 11 9 8 8 8 9 10 11 12 13 13 16 19 17 15 19 16 14 17 24 23 20 19 19 21 20
14 13 13 12 12 12 12 12 12 12 11 10 8 7 7 8 9 11 12 13 15 16 16 18 22 22 21 25 29 24 21 23 23 21 18 16 14 20
15 15 14 13 12 12 12 12 11 10 9 9 8 9 10 11 12 14 15 16 17 16 16 16 18 19 21 25 30 31 31 27 26 22 13 18 23 21
15 14 14 14 13 13 12 12 11 10 10 10 11 12 13 15 15 15 16 16 17 13 13 15 17 18 21 24 27 30 28 30 28 28 28 28 27 25
17 16 16 15 13 13 13 13 12 12 13 14 16 16 15 15 15 15 16 17 18 16 15 12 14 18 21 23 27 28 28 29 27 27 28 29 29 28
17 18 17 16 15 15 14 14 14 14 15 17 17 16 17 17 17 17 17 18 20 20 19 17 18 20 23 25 25 26 25 28 26 24 25 30 33 29
18 19 19 18 16 16 16 16 15 15 17 17 18 18 18 19 19 20 20 20 21 22 22 21 21 21 26 30 31 24 24 24 28 30 29 31 34 31
19 20 19 18 18 18 17 18 17 18 18 19 20 19 19 19 21 21 22 24 25 24 25 23 23 23 26 29 32 33 26 29 28 32 32 31 31 31
17 18 18 19 18 18 18 19 20 20 19 20 20 21 21 21 24 24 25 25 26 27 29 29 26 25 27 28 34 36 31 29 31 33 31 29 32 34
17 17 16 17 18 18 19 19 20 19 19 20 21 22 22 23 25 26 26 27 28 29 31 31 28 26 26 27 32 35 36 35 32 31 29 28 31 33
18 18 17 17 17 18 19 19 20 20 19 20 21 22 22 24 24 26 27 28 29 30 30 30 29 28 30 31 33 38 39 38 36 35 35 32 29 28

GFSNE_850_spd_066.txt.gz
Wind_Speed
18 18 19 20 21 22 24 23 22 19 19 15 16 19 18 22 22 24 22 18 18 20 25 29 25 30 29 29 26 27 31 33 35 36 26 25 24 22
16 17 18 19 19 18 17 14 17 17 18 18 20 21 22 22 22 21 20 15 12 11 17 19 23 20 20 22 24 26 28 29 21 19 22 22 21 19
14 13 12 11 9 9 9 11 11 12 15 17 18 21 22 23 17 17 14 11 8 10 18 20 21 24 27 25 28 26 22 22 22 26 23 20 19 17
9 8 5 5 6 7 8 9 10 12 13 15 17 19 18 17 15 12 11 11 10 17 19 20 22 24 25 22 20 19 22 24 25 26 26 26 24 20
2 3 4 4 4 5 6 8 9 10 11 13 14 16 15 11 11 11 11 11 11 13 17 20 23 26 26 26 25 23 23 24 24 24 23 22 20 18
1 1 1 1 1 2 4 6 6 7 8 10 10 11 12 11 10 9 9 8 9 11 13 15 18 19 20 21 21 22 22 22 22 21 20 20 19 19
3 2 1 3 4 5 5 6 7 8 9 10 10 9 10 11 10 10 9 10 10 10 10 11 12 13 15 17 18 20 22 23 22 20 17 17 17 14
4 4 5 7 8 8 8 9 9 9 9 9 10 11 11 10 11 11 10 10 9 10 11 11 14 15 17 18 20 20 20 19 17 16 14 13 15 15
7 7 7 8 9 9 10 11 11 12 11 11 11 11 11 12 13 13 13 14 14 15 18 18 17 16 17 17 16 16 14 13 13 13 14 14 15 15
7 7 8 10 10 9 11 11 11 11 10 10 10 11 12 13 14 15 15 16 17 16 16 15 12 9 9 11 11 11 10 11 13 14 15 16 16 19
9 9 10 10 12 13 11 11 11 11 11 10 10 10 11 11 14 13 12 12 12 9 11 12 12 12 10 10 11 13 14 15 17 17 15 17 19 23
10 11 12 12 12 12 12 11 10 10 10 10 11 12 11 11 11 10 9 9 9 8 6 10 12 14 8 10 10 13 14 15 16 16 15 20 22 25
10 11 11 12 11 11 12 12 12 11 11 11 10 9 8 7 7 8 8 9 11 12 14 16 16 17 16 19 18 14 14 15 21 25 24 25 26 27
13 13 13 13 12 11 11 11 12 12 11 10 8 7 7 7 8 10 11 13 14 14 14 16 20 19 19 23 26 21 18 18 22 25 28 28 27 27
15 15 14 14 13 12 11 11 11 11 10 9 9 8 9 10 12 14 15 16 17 16 16 16 17 18 19 22 26 26 27 23 21 18 15 18 22 25
15 14 15 16 15 14 12 12 12 11 11 10 11 12 13 14 15 15 16 16 18 14 13 15 16 18 21 22 24 27 27 28 24 24 25 24 24 28
16 15 16 16 15 14 13 12 12 12 12 13 14 16 15 15 15 16 16 17 18 18 15 11 14 19 22 24 27 26 26 28 27 23 24 28 24 21
15 16 16 16 16 15 14 13 13 13 14 15 15 17 17 17 17 17 17 18 19 20 20 18 18 20 23 25 25 26 26 28 25 22 20 27 30 24
16 17 18 18 16 15 15 16 14 14 15 16 17 17 17 17 18 18 18 19 20 20 21 21 20 20 24 29 32 26 25 25 26 26 25 27 31 28
18 19 19 18 17 17 17 17 16 15 16 16 17 17 17 18 19 20 20 21 23 24 25 22 20 21 24 27 30 35 28 27 26 28 27 29 31 29
16 18 18 18 18 17 17 17 17 17 16 17 17 17 17 19 21 21 22 22 24 25 27 27 24 23 24 25 32 34 30 25 25 28 29 32 34 33
17 19 18 17 17 18 18 18 18 18 17 18 18 19 19 20 22 22 23 24 25 26 28 27 24 23 23 26 31 33 34 32 29 28 28 28 30 34
18 19 19 18 18 19 19 20 21 20 19 19 19 20 20 21 22 23 24 25 26 27 28 29 28 28 29 30 31 35 36 34 34 34 33 30 30 30

GFSNE_850_spd_069.txt.gz
Wind_Speed
17 18 20 18 19 19 20 20 17 13 12 11 11 14 19 19 18 17 16 14 13 13 12 13 19 11 19 21 25 29 28 28 28 26 28 29 31 35
19 19 20 18 18 19 17 15 12 13 14 14 15 16 18 20 18 15 14 12 10 9 9 15 19 17 17 17 23 26 27 27 26 28 27 30 24 20
15 15 15 14 12 9 8 9 10 10 10 11 14 16 18 18 14 11 11 6 7 6 10 12 15 18 14 19 22 22 25 26 30 32 27 22 25 20
8 7 6 6 5 6 7 9 10 11 12 13 14 15 17 15 11 8 9 10 9 7 9 13 14 19 20 24 25 27 28 26 24 23 23 26 27 27
2 3 3 3 4 5 6 8 10 11 10 10 12 13 14 12 9 9 9 9 9 9 14 18 18 20 21 22 21 20 21 23 24 25 25 23 23 22
2 2 2 3 3 5 6 7 7 7 7 8 9 9 10 10 10 9 8 8 8 9 10 11 13 17 20 22 22 22 23 23 22 21 20 22 21 21
4 2 1 2 1 3 4 5 6 7 8 9 9 9 10 10 10 9 9 8 8 9 10 12 12 13 13 15 17 18 19 21 21 21 21 21 20 18
2 1 2 3 5 6 7 8 9 9 10 10 10 10 10 10 10 11 11 10 9 11 10 11 13 14 15 17 18 19 20 20 21 20 19 18 17 14
2 3 4 5 6 7 9 10 11 11 10 10 10 10 10 10 11 12 12 12 12 14 15 15 15 15 16 17 18 18 18 17 16 16 16 14 14 14
4 4 5 6 6 7 9 9 10 10 10 9 9 10 10 11 10 11 12 13 12 11 10 9 8 7 8 9 9 9 10 10 11 12 13 14 14 16
5 6 7 8 11 10 8 9 9 9 9 9 9 9 10 10 12 11 11 10 9 8 8 7 7 8 7 8 8 9 10 11 13 15 17 17 16 17
6 8 9 9 10 11 8 8 9 9 8 9 9 9 8 8 8 7 7 6 6 5 5 9 11 11 5 5 5 6 10 13 15 16 18 18 18 19
7 8 8 9 9 9 9 9 10 9 9 9 8 7 5 5 5 6 6 7 8 9 12 13 13 13 11 13 14 12 15 15 16 16 19 23 26 26
8 8 8 8 9 9 9 10 10 10 9 8 7 6 6 6 7 8 9 11 13 13 13 14 17 16 16 18 20 16 17 15 17 20 23 26 28 31
8 9 9 9 9 9 9 8 9 9 9 8 8 8 8 9 10 12 13 14 15 14 14 15 15 15 17 20 22 23 23 20 17 12 12 16 20 24
10 9 10 11 12 11 10 10 10 9 9 9 9 10 11 13 14 13 14 13 15 13 12 14 15 17 19 20 22 24 23 24 23 22 22 23 23 22
8 8 10 12 12 12 12 11 10 10 10 10 10 11 12 13 14 15 15 14 15 16 15 11 13 19 21 23 27 26 23 25 24 23 24 26 24 22
10 10 11 12 12 12 12 11 11 11 11 11 11 12 13 14 14 15 15 15 16 16 17 16 18 18 20 23 25 24 24 25 22 23 22 26 28 22
11 11 12 12 13 13 13 13 11 11 12 12 13 13 14 15 16 16 16 17 18 18 18 18 18 18 21 24 28 25 22 20 25 27 25 25 29 25
13 13 13 13 14 14 14 14 13 12 12 13 13 14 15 16 17 17 17 18 20 20 21 19 18 19 21 25 29 29 26 25 23 26 26 25 28 28
14 15 14 14 14 15 15 15 15 14 13 14 14 15 15 17 18 18 19 20 21 22 25 23 20 21 23 25 31 31 27 28 26 26 27 29 31 32
16 17 16 16 15 16 17 17 17 17 16 16 16 17 18 19 19 20 21 22 23 23 25 24 22 22 23 27 33 34 33 30 27 27 27 27 30 33
18 18 17 17 16 17 18 19 19 19 18 18 18 19 19 20 20 21 22 23 24 26 26 26 25 24 26 27 30 33 34 33 33 33 32 28 27 28

GFSNE_850_spd_072.txt.gz
Wind_Speed
14 16 17 20 17 17 16 17 16 9 12 14 14 13 16 18 21 20 18 18 17 16 15 18 20 16 13 21 28 26 27 26 17 15 15 14 17 19
16 15 18 20 20 19 19 18 17 13 11 12 14 16 16 18 22 17 16 13 12 10 11 15 16 14 7 11 11 13 16 20 25 24 30 25 24 23
15 15 16 16 15 14 12 10 9 10 11 12 13 14 16 18 18 15 10 8 7 9 11 12 13 11 9 12 16 19 24 25 23 25 29 29 29 27
10 11 11 10 9 9 9 8 9 11 11 13 14 15 16 16 17 11 9 7 8 10 11 10 11 11 10 14 16 15 15 18 22 26 29 31 29 24
8 8 8 8 8 7 6 7 8 11 11 13 13 14 13 12 10 9 9 9 9 10 12 14 16 18 18 19 19 22 25 25 25 23 22 22 22 23
3 3 3 4 6 6 6 8 8 8 8 9 10 11 11 10 9 8 8 10 10 10 11 11 13 16 18 18 18 19 20 21 22 23 23 23 23 22
4 3 3 2 4 5 6 7 7 8 8 9 9 9 10 10 9 10 10 10 12 10 11 13 13 13 15 16 17 18 19 19 20 20 21 21 21 21
4 3 2 3 4 5 6 7 8 8 9 9 9 8 10 10 11 11 11 10 6 13 10 10 14 14 15 16 17 18 19 20 20 21 22 22 23 22
2 2 2 4 5 6 8 9 9 8 8 8 8 8 9 10 10 10 10 10 10 13 13 10 12 11 14 15 16 17 18 19 20 20 21 21 20 18
1 1 2 4 4 6 7 8 8 8 8 8 8 9 9 9 9 10 10 10 9 10 8 6 8 7 8 9 10 10 10 11 12 13 14 14 14 15
1 2 4 5 6 6 7 7 8 9 9 9 9 9 10 10 9 9 8 7 5 6 8 5 6 8 9 8 9 9 9 10 11 13 15 15 15 17
3 4 5 6 8 6 6 7 8 9 9 9 10 9 9 9 8 7 7 6 6 5 6 9 10 9 5 7 7 5 6 10 13 15 16 17 19 21
4 5 6 7 7 8 6 7 8 8 8 9 9 8 7 7 7 7 7 8 8 8 12 12 12 11 8 11 12 12 13 14 15 17 17 19 20 22
4 5 6 7 7 8 8 9 8 7 8 8 8 8 8 8 9 9 10 11 12 13 14 15 16 13 14 16 16 13 13 14 14 15 18 21 23 25
6 7 6 6 7 8 9 8 8 9 9 9 9 9 9 10 11 13 14 14 15 14 14 15 14 15 16 19 21 22 20 18 18 14 10 15 19 22
8 9 8 8 8 8 9 9 9 9 9 9 10 11 11 12 13 13 13 13 15 14 13 14 15 15 17 19 22 25 22 20 21 21 21 22 24 23
10 10 9 10 10 10 10 10 11 11 11 11 11 11 11 12 12 13 13 13 14 14 14 14 12 15 19 22 25 24 23 24 23 23 24 26 24 23
12 11 11 11 11 12 12 12 12 12 12 12 12 12 12 13 14 14 14 13 14 14 15 14 16 17 18 22 21 20 20 22 22 22 22 26 28 25
14 13 13 13 13 14 14 13 12 13 13 13 13 13 13 15 15 15 15 16 16 17 17 18 18 17 18 21 20 22 19 19 22 22 22 24 27 27
16 16 16 16 15 16 15 15 14 14 14 14 15 14 15 16 16 16 17 18 18 19 21 20 18 17 20 23 23 26 25 26 23 26 25 27 30 29
18 19 18 18 17 17 17 17 16 15 15 16 16 16 17 18 18 18 19 19 20 21 23 22 19 20 24 26 30 30 27 25 27 29 27 27 31 32
20 20 20 19 19 19 18 18 18 18 17 18 18 18 19 20 20 20 20 21 22 23 24 24 23 23 24 25 30 30 29 27 25 27 28 29 30 30
21 21 21 20 20 20 19 20 20 20 19 19 20 21 21 22 21 22 22 23 24 25 24 25 22 20 23 25 28 31 32 31 30 31 29 27 27 28

GFSNE_850_spd_078.txt.gz
Wind_Speed
15 14 13 14 16 16 14 15 14 13 16 17 17 16 15 14 14 16 19 18 13 11 12 14 13 12 12 10 14 9 9 16 20 28 32 24 28 24
16 14 14 15 16 17 18 18 20 19 19 17 16 15 14 14 14 16 19 17 12 9 11 13 11 9 7 4 5 8 4 8 12 19 20 25 25 21
15 14 14 15 17 19 22 22 20 16 16 18 18 14 11 13 15 17 15 12 9 9 10 12 9 8 6 4 5 3 2 7 15 20 17 13 12 12
14 15 15 16 16 15 12 11 10 10 11 13 14 11 14 14 14 13 11 10 10 10 11 11 10 7 6 5 5 4 4 6 8 11 13 14 18 20
12 12 11 11 10 10 9 10 10 9 10 11 14 12 12 9 11 11 10 11 10 10 10 10 10 10 10 9 10 10 9 11 12 13 14 14 15 15
10 10 9 8 8 9 9 8 7 8 10 11 12 10 9 9 9 9 9 11 11 10 10 11 10 10 11 12 13 13 15 13 14 16 19 20 19 20
6 6 6 5 5 6 6 8 8 8 9 11 10 9 9 10 10 11 11 9 12 10 8 10 10 10 12 12 12 13 14 16 18 18 17 18 19 20
7 6 5 5 6 7 7 8 9 8 7 11 9 10 11 10 10 10 11 8 7 9 8 9 10 10 11 13 14 15 14 15 15 16 17 18 18 19
6 5 4 4 4 4 3 4 6 6 7 8 8 8 10 10 11 9 9 9 8 9 8 5 6 6 8 9 8 9 10 12 14 16 18 19 19 20
6 5 4 3 3 4 4 4 4 4 4 6 7 8 8 9 9 8 8 7 6 7 6 5 5 5 6 9 7 7 7 7 7 9 11 13 14 15
5 4 4 3 2 5 3 3 5 3 4 5 6 7 7 7 8 8 7 5 4 6 7 6 6 7 8 7 6 6 6 7 7 8 9 10 12 11
6 5 4 3 3 4 4 4 5 6 7 6 6 6 6 6 7 6 5 5 5 5 5 8 10 10 5 5 3 9 9 10 11 11 11 12 13 14
6 5 4 3 4 3 4 5 6 7 7 7 8 8 7 7 6 6 7 7 7 8 12 11 11 13 10 11 8 11 10 9 9 11 13 14 15 17
7 7 5 5 4 5 5 5 6 6 7 8 8 9 9 10 8 8 9 11 12 12 12 14 16 14 14 16 15 12 12 13 13 13 14 14 15 16
8 8 8 7 6 6 6 6 6 7 8 9 9 9 9 9 11 11 12 12 13 12 13 13 14 14 15 17 20 20 19 14 12 8 10 15 15 16
10 10 10 9 9 9 9 8 8 8 9 9 10 10 10 10 10 12 12 13 12 11 11 12 11 13 15 16 19 20 18 18 18 16 17 16 17 18
14 13 12 12 11 11 11 11 10 10 10 11 11 11 11 12 11 12 12 13 14 13 12 12 11 12 13 17 20 20 18 17 15 16 18 19 18 17
17 16 15 14 13 13 13 13 13 12 12 12 12 12 12 13 13 13 14 15 15 14 14 13 14 16 18 18 18 17 16 17 15 16 17 21 24 19
21 19 18 17 15 14 14 14 14 14 14 14 14 14 14 14 14 14 15 16 16 16 15 15 16 17 20 23 23 18 18 15 20 23 23 22 26 25
24 22 20 19 18 17 16 15 16 16 16 16 16 15 15 16 16 16 16 17 17 17 18 18 19 20 21 21 23 25 22 22 23 24 24 23 25 26
26 25 23 21 20 19 18 17 17 18 18 18 17 17 16 17 18 18 18 19 19 20 21 20 20 18 17 21 27 30 27 20 19 23 25 27 29 29
27 26 25 23 22 20 20 17 20 20 20 19 19 18 18 19 20 19 20 20 21 21 23 22 21 21 22 23 27 27 24 21 18 19 22 24 27 30
33 32 32 29 24 23 25 26 24 21 20 20 19 19 19 21 21 21 22 22 23 23 23 23 22 22 24 24 23 25 26 26 27 27 24 19 22 24

GFSNE_850_spd_084.txt.gz
Wind_Speed
20 21 21 21 17 18 19 20 21 15 17 18 21 17 14 14 14 16 14 14 14 13 10 6 5 6 7 7 5 7 6 6 14 21 22 27 24 20
20 21 22 21 16 16 16 16 18 18 19 16 15 14 16 16 16 14 12 12 12 8 8 6 6 5 5 4 2 3 6 1 6 14 19 27 27 21
20 21 22 18 16 17 18 17 19 19 17 19 18 17 17 17 14 11 10 10 10 7 7 7 8 8 6 6 4 4 2 4 3 6 11 20 23 23
19 21 20 17 17 18 17 19 23 23 23 21 19 15 16 15 12 11 11 9 9 8 9 8 9 8 8 5 4 4 7 4 6 12 20 26 23 25
17 18 18 15 15 17 17 15 14 12 13 15 15 14 13 12 10 10 9 9 9 9 9 9 9 9 8 8 8 8 7 7 10 12 10 13 15 15
16 16 16 13 13 13 12 11 11 11 12 12 13 12 12 9 9 8 9 10 10 11 9 10 8 9 9 9 9 10 10 11 11 11 14 15 14 14
16 14 11 10 9 10 12 10 10 10 9 10 10 10 9 9 8 8 9 10 10 10 9 8 8 8 8 8 9 10 11 12 14 15 15 16 16 15
11 9 9 8 7 9 10 8 8 8 9 10 12 11 11 9 8 7 9 8 7 9 8 7 8 6 6 5 6 6 8 11 13 15 16 18 18 19
9 7 6 6 6 6 7 9 8 9 9 8 9 8 10 8 8 7 8 7 7 7 7 5 5 4 4 3 3 2 2 5 8 11 13 16 17 20
9 9 7 7 6 7 6 5 5 4 4 5 6 7 7 7 7 6 6 6 6 5 4 4 4 4 4 5 5 4 4 3 4 5 6 8 11 13
9 8 7 7 7 6 6 5 4 3 2 3 5 5 5 4 5 5 5 5 5 5 4 4 4 5 5 5 5 4 4 4 5 6 7 7 8 9
9 8 7 8 7 6 6 5 4 4 3 3 3 3 3 3 3 3 4 4 4 4 4 4 5 4 3 6 6 5 8 7 8 10 10 10 11 12
9 8 7 7 7 7 6 6 6 5 5 4 3 3 4 4 4 5 5 5 6 6 7 7 6 7 6 5 9 8 9 9 8 10 10 12 13 14
9 9 9 9 8 7 6 7 7 6 6 5 5 4 4 5 6 7 6 6 7 9 9 8 9 9 10 9 8 7 7 10 11 11 13 14 15 16
9 10 10 9 9 8 7 8 7 7 7 7 6 5 5 6 7 7 8 7 7 8 9 9 9 10 11 11 10 7 8 8 12 11 11 12 15 17
11 11 11 11 10 10 10 10 9 9 9 8 8 7 7 7 8 9 10 9 7 9 9 9 9 9 10 11 14 12 9 8 9 13 16 14 15 17
14 15 15 14 13 13 12 12 12 12 11 10 10 9 9 10 10 12 11 11 10 9 9 11 10 11 13 14 16 14 14 14 12 14 16 16 15 15
19 18 17 16 16 15 15 14 15 14 13 14 12 13 12 14 14 13 13 13 12 11 11 12 13 14 15 16 16 15 12 14 14 16 17 19 20 18
22 20 19 18 17 17 17 17 16 15 16 17 16 14 14 17 17 15 15 15 14 14 14 14 14 15 17 21 19 17 15 11 13 15 18 20 25 21
24 22 20 18 18 18 18 19 18 17 18 18 17 16 14 18 18 18 16 17 16 16 17 16 16 16 18 19 23 24 20 19 17 19 21 21 22 21
24 24 21 20 19 19 19 19 20 21 21 21 19 17 20 19 21 20 18 18 17 18 18 17 15 19 20 21 25 25 22 20 20 21 20 21 21 23
25 25 24 24 24 27 28 24 23 23 24 24 27 32 27 22 23 19 19 19 18 18 20 19 18 19 21 22 23 24 23 21 19 18 18 18 20 26
26 27 28 30 30 29 28 28 30 32 31 30 32 32 26 27 27 26 22 21 21 19 20 20 20 20 20 20 21 23 23 21 21 20 18 16 18 23

GFSNE_850_spd_087.txt.gz
Wind_Speed
21 21 21 20 20 22 19 19 20 16 20 20 20 18 15 18 12 16 18 16 14 14 11 10 8 9 9 9 7 8 6 7 9 14 18 19 23 24
21 21 22 22 21 22 17 16 19 20 23 22 21 20 18 14 13 19 19 15 14 12 9 8 8 8 6 6 5 6 7 9 9 12 15 18 22 22
21 21 22 22 22 20 16 16 16 14 17 17 18 15 15 16 19 19 14 13 12 10 8 8 9 9 8 6 6 5 4 6 9 4 9 14 18 23
20 20 21 21 19 16 16 16 18 21 22 22 22 20 19 22 19 16 13 11 11 11 9 10 10 9 8 5 6 5 6 2 3 7 11 15 17 21
18 18 19 20 17 16 17 17 18 17 17 19 21 20 19 18 16 13 12 11 11 11 10 11 9 9 8 7 7 7 7 7 6 6 12 16 18 19
18 18 18 18 16 13 12 13 13 13 12 14 15 15 16 17 13 11 11 11 11 10 11 11 10 9 8 9 9 9 10 10 10 13 11 10 10 11
16 16 17 15 12 11 11 11 11 11 12 12 12 14 13 13 10 11 11 11 11 10 10 10 10 9 8 8 9 10 10 11 12 14 15 14 13 13
13 13 11 8 8 8 8 8 9 9 10 12 12 12 11 11 11 11 11 10 10 9 10 10 9 7 7 6 5 6 8 10 12 14 15 16 16 15
11 10 8 8 9 8 7 9 9 10 12 11 11 10 10 10 10 10 9 9 9 9 9 8 7 6 5 5 3 3 3 5 8 11 13 15 17 18
11 11 10 9 9 7 7 7 6 6 7 7 9 8 8 9 9 8 8 7 7 7 7 6 7 6 5 5 5 5 4 4 4 5 7 8 11 13
12 11 10 9 8 7 7 7 5 5 3 4 6 6 6 6 6 6 6 6 5 6 6 6 7 6 6 7 6 6 6 5 4 5 6 6 7 7
11 11 10 10 9 7 7 7 6 4 4 4 4 3 3 3 4 4 4 4 5 4 6 7 6 6 4 7 7 7 7 7 8 9 9 10 11 11
12 11 11 10 9 8 7 7 8 7 6 5 4 4 4 4 4 4 5 5 6 7 6 7 7 7 7 7 7 9 10 10 10 10 11 12 12 13
12 11 11 10 9 8 7 8 9 8 7 7 6 5 5 5 5 5 6 7 8 9 10 10 12 11 11 11 11 9 11 10 12 13 14 14 14 15
13 12 12 11 10 9 8 9 9 8 9 8 7 7 7 7 6 6 7 7 9 11 11 10 10 11 12 10 9 8 10 11 12 12 16 16 14 15
13 12 12 12 12 12 12 11 10 10 10 10 10 10 9 8 8 8 8 10 10 12 12 12 12 12 11 10 12 8 9 8 8 12 16 16 17 17
15 16 16 15 14 14 13 13 13 13 13 12 12 12 11 11 11 11 14 13 12 12 13 14 14 13 14 14 16 13 12 14 13 15 17 17 16 19
21 20 19 18 17 16 15 15 15 15 15 16 16 16 15 15 13 14 14 16 16 14 14 15 16 16 17 16 16 15 12 11 13 17 18 19 19 18
25 23 21 19 18 17 17 17 17 15 16 18 19 17 18 17 17 15 15 18 18 16 16 16 17 17 18 21 18 19 17 12 12 13 18 21 24 23
27 26 21 19 18 18 18 19 18 18 19 20 20 20 19 19 19 17 16 18 19 20 20 18 17 16 19 20 23 22 19 18 18 18 19 22 25 25
27 26 23 20 19 18 19 20 21 21 22 23 22 22 21 21 20 19 22 25 22 23 23 19 14 18 19 22 25 25 22 20 19 18 20 23 24 23
28 28 26 25 23 23 25 23 24 24 27 26 25 24 24 27 31 29 27 23 22 22 21 19 20 18 21 24 25 25 24 23 19 17 18 21 22 23
24 25 26 27 27 28 29 27 28 29 28 30 31 29 29 32 30 26 26 26 27 29 26 25 23 20 20 22 24 24 23 23 21 20 19 17 20 24

GFSNE_850_spd_090.txt.gz
Wind_Speed
18 17 18 17 17 17 18 17 15 14 16 18 19 22 21 20 18 15 15 15 21 17 14 13 12 10 9 11 8 7 8 8 9 10 17 21 21 24
19 18 18 17 17 18 18 17 16 17 20 19 19 21 19 20 18 16 15 17 19 16 13 10 10 9 9 8 6 5 6 9 9 8 10 13 19 21
19 18 18 18 17 18 19 16 15 17 18 20 18 20 20 22 16 16 18 21 16 14 12 11 10 10 10 8 8 6 5 6 11 7 1 10 14 19
18 18 18 19 18 18 17 13 15 17 18 20 20 18 15 16 19 19 20 17 14 13 12 12 11 11 10 7 7 7 5 2 4 5 8 12 11 16
17 17 16 17 18 17 16 15 16 18 18 20 22 24 22 20 19 18 17 13 14 12 12 12 11 12 8 8 7 8 7 7 5 7 16 16 18 18
17 16 16 17 17 16 13 12 13 14 14 13 14 16 17 17 17 18 14 12 13 12 12 12 11 11 10 8 7 7 9 9 10 10 9 10 15 16
16 13 13 14 10 8 9 10 10 11 12 14 14 15 16 16 16 13 12 12 12 12 11 11 11 10 9 9 7 7 9 10 11 13 13 12 11 11
12 11 12 10 8 8 9 9 10 11 11 13 14 14 13 13 12 11 11 11 11 10 11 10 9 8 7 6 6 5 6 9 11 12 14 15 13 12
10 10 10 8 8 8 8 9 9 9 10 11 13 12 12 11 11 11 10 10 11 10 8 8 8 7 6 5 4 2 2 5 8 10 12 14 16 16
9 9 10 9 8 8 8 7 6 6 8 10 11 10 9 9 9 9 10 9 8 8 7 5 6 6 6 6 4 4 4 4 4 6 7 9 10 12
10 10 10 9 10 8 7 7 7 5 6 6 7 6 7 8 8 7 7 7 6 6 6 5 5 6 6 6 6 6 5 5 5 4 5 6 6 7
11 10 10 11 11 9 7 7 6 6 5 5 4 4 4 4 4 4 4 5 4 3 5 6 5 4 3 7 8 7 7 7 6 7 7 8 8 9
11 12 11 10 10 8 8 7 8 8 8 5 4 4 4 4 4 3 3 4 4 4 5 5 6 7 7 6 5 7 8 10 10 10 11 10 11 11
12 12 12 11 10 9 8 9 9 8 8 7 7 6 6 5 4 4 4 4 4 4 6 9 11 10 10 11 10 9 11 12 12 12 12 13 13 13
13 13 13 12 11 11 9 9 10 8 10 9 8 8 8 8 6 6 5 5 6 6 6 9 12 11 10 10 10 9 11 12 13 13 14 14 15 14
15 14 14 13 13 13 12 11 9 9 10 10 10 11 10 9 9 9 9 9 10 10 11 12 11 11 12 11 11 9 11 10 8 11 14 14 15 16
16 17 16 15 15 14 13 12 11 12 11 11 12 13 13 13 13 13 12 12 11 11 12 13 13 13 13 14 14 11 12 14 14 17 18 17 14 17
20 21 20 18 17 16 15 14 14 14 13 13 14 14 14 14 15 15 15 14 12 11 12 15 17 17 17 15 15 14 12 10 12 14 16 19 18 16
24 24 22 20 18 17 17 17 17 15 16 17 16 16 16 16 18 18 17 17 16 13 13 16 17 18 19 19 17 17 17 12 12 11 14 18 22 22
26 27 22 20 18 18 18 18 18 17 19 19 18 18 18 18 19 20 20 19 17 16 18 20 21 18 19 18 20 19 17 18 18 18 19 21 23 24
26 26 23 21 18 18 18 18 18 19 20 21 21 20 19 20 22 22 21 20 19 24 27 25 18 20 20 21 23 22 18 18 20 19 20 23 23 23
28 29 26 24 22 21 20 20 21 22 23 24 23 22 23 25 27 24 23 26 27 27 24 20 21 22 22 24 25 23 22 20 19 19 20 22 22 22
26 26 26 27 27 26 25 25 25 29 26 27 29 29 28 29 29 28 29 28 24 24 24 24 24 26 26 24 24 23 22 21 23 22 19 20 22 24

GFSNE_850_spd_093.txt.gz
Wind_Speed
16 17 17 16 15 16 17 17 15 9 11 14 14 16 18 18 17 20 18 14 17 18 19 15 14 12 10 9 10 8 9 10 10 10 14 20 21 22
18 19 17 16 16 16 17 18 17 17 15 15 16 17 18 17 18 17 16 16 17 20 14 15 13 12 11 8 8 7 8 9 11 8 9 14 20 22
20 19 17 16 16 17 17 18 18 18 19 21 19 18 18 19 19 19 17 14 16 20 14 13 11 11 11 9 8 8 6 6 9 7 3 12 15 21
17 16 16 16 17 17 17 18 17 16 19 20 19 17 17 17 18 16 14 16 17 16 14 12 12 11 11 10 9 8 6 3 3 3 3 12 8 11
16 15 15 16 17 17 16 17 16 17 19 21 21 21 21 20 18 17 17 18 18 14 13 12 13 11 10 9 9 7 7 6 4 7 9 11 15 14
16 16 16 17 17 17 17 14 13 14 16 16 17 17 16 18 18 17 16 16 14 13 12 13 13 12 10 9 8 8 8 9 11 8 12 16 16 16
18 17 14 13 12 10 10 11 12 12 13 13 14 14 13 14 14 13 14 12 12 12 13 12 11 11 10 8 8 7 8 10 12 13 13 11 12 13
17 13 10 10 10 9 9 9 9 11 12 12 13 13 14 14 14 13 10 9 9 11 11 11 10 9 8 7 6 5 7 10 11 14 15 13 12 12
12 10 10 10 9 9 8 8 9 9 8 9 11 13 13 11 12 11 9 8 9 10 9 9 8 7 7 6 3 2 3 6 10 12 14 16 16 15
9 10 10 11 10 9 8 8 7 7 9 10 12 12 11 11 9 8 7 8 8 7 7 7 7 6 6 6 4 4 4 4 4 7 9 11 12 14
10 11 11 12 10 10 8 8 7 7 7 7 6 8 8 8 6 5 5 5 5 6 6 5 5 5 6 7 7 6 5 5 4 4 4 5 6 7
12 13 13 11 11 9 9 8 8 8 6 5 5 6 6 5 4 6 6 5 4 3 4 5 5 4 3 6 8 7 6 6 5 5 5 5 5 6
12 12 11 10 10 10 9 9 9 9 8 7 6 6 6 6 6 5 4 5 4 3 2 3 3 4 6 6 6 6 8 8 8 8 9 8 8 8
13 12 13 12 12 11 10 11 11 10 10 10 9 8 7 7 6 6 5 4 4 3 3 4 6 6 7 8 9 9 9 11 12 12 11 10 11 11
14 14 14 14 14 13 12 11 11 10 12 10 9 9 9 9 9 9 8 7 6 5 6 7 8 8 8 8 10 10 10 11 11 12 13 12 12 12
15 16 15 16 15 14 14 12 11 10 10 10 10 11 11 11 11 11 11 10 8 7 7 8 9 9 9 9 9 9 10 10 9 10 12 12 12 13
17 18 18 17 17 16 15 15 13 13 12 11 12 13 13 13 12 12 12 12 10 9 9 8 9 10 10 11 11 10 12 14 14 16 17 17 16 18
23 22 20 20 19 17 16 15 16 14 13 13 14 14 14 14 14 15 14 14 13 11 11 11 11 12 14 12 12 10 10 10 12 15 15 17 17 18
26 23 23 23 21 20 18 18 17 15 15 17 17 16 16 16 17 17 16 18 16 15 14 14 13 13 16 17 16 15 11 10 11 12 14 16 19 19
26 24 24 23 21 20 19 19 18 17 19 19 19 18 18 18 19 19 19 18 17 18 18 17 15 18 21 21 19 18 16 16 18 19 18 19 22 21
25 26 24 23 21 19 19 20 18 19 20 20 20 20 20 21 21 20 19 19 21 21 20 18 18 21 20 20 21 19 17 19 19 19 19 19 20 21
23 27 26 25 22 20 20 20 19 20 21 21 20 20 21 23 23 22 22 23 24 23 22 23 21 20 20 20 20 20 22 22 20 19 19 19 19 19
23 23 26 26 24 25 25 23 23 24 25 25 25 25 25 26 26 27 26 25 25 26 26 22 21 21 21 22 22 24 23 21 21 20 18 18 21 21

GFSNE_850_spd_096.txt.gz
Wind_Speed
15 15 17 16 17 18 18 17 16 10 10 11 12 13 14 14 16 16 18 17 17 16 17 20 20 19 17 12 10 13 13 11 13 13 14 17 22 26
16 16 16 17 17 18 18 18 19 18 14 13 15 14 15 17 16 16 17 18 18 17 17 23 18 17 15 11 9 9 9 10 13 13 12 14 18 22
16 15 17 17 18 19 18 18 19 19 21 18 19 16 17 18 17 19 19 18 18 15 16 22 17 15 13 11 11 9 9 9 10 12 10 8 13 19
14 15 17 17 18 18 18 18 18 17 19 17 17 17 16 16 17 17 18 16 14 15 18 19 16 13 13 12 11 9 9 7 3 6 9 4 8 13
15 17 18 18 18 19 20 19 18 18 17 19 20 18 18 18 19 18 18 17 16 17 17 16 16 13 13 11 10 9 8 7 4 1 1 3 6 8
17 17 18 18 18 19 20 18 17 15 15 17 17 16 16 17 17 18 17 17 16 17 16 15 14 14 13 11 10 9 8 9 9 5 8 13 13 16
16 18 18 18 18 16 14 12 12 12 13 13 14 13 14 13 13 13 14 15 17 14 14 14 13 11 11 10 10 8 8 9 12 13 7 10 12 11
15 17 17 15 14 11 10 11 11 11 12 12 13 13 13 13 13 13 14 14 13 11 13 12 11 10 9 8 8 6 6 9 12 15 14 10 8 9
15 15 15 13 11 12 11 10 10 11 10 10 11 12 13 12 14 13 13 13 14 11 9 9 9 9 8 7 5 4 3 6 9 13 16 16 14 12
11 12 12 11 12 12 10 10 10 9 11 12 13 14 13 13 12 12 12 12 11 10 9 7 6 7 7 6 5 4 3 3 5 8 11 14 15 16
11 11 12 12 13 12 11 11 10 10 10 10 9 10 11 11 10 10 10 10 8 7 7 5 5 6 6 6 7 5 5 5 5 4 5 7 10 12
12 12 14 14 14 13 12 11 10 11 9 7 8 9 8 8 9 11 9 7 7 5 4 5 4 3 3 5 7 7 7 6 6 5 5 6 7 7
13 13 14 14 13 13 12 11 11 11 11 10 8 7 8 8 9 8 6 6 7 6 4 4 2 3 5 5 6 6 7 8 9 7 6 7 8 8
14 14 13 13 13 13 13 13 14 13 13 12 11 10 10 9 8 8 8 8 7 6 5 3 3 5 6 7 8 7 8 9 10 11 11 10 9 10
15 15 14 14 15 16 15 14 14 13 15 14 12 12 12 11 11 11 9 8 8 8 6 6 6 6 7 9 9 9 10 9 10 11 11 11 11 11
17 18 17 17 17 17 17 16 15 14 14 14 14 15 14 12 12 11 11 11 11 9 8 8 8 8 8 8 10 10 10 9 8 8 9 10 11 11
17 20 20 20 20 20 20 19 17 16 16 15 15 14 13 14 14 13 13 13 13 12 10 9 9 9 10 10 10 11 12 13 13 14 15 15 15 16
23 24 24 22 22 21 21 21 20 18 16 15 15 15 15 15 15 15 15 15 15 15 14 13 13 12 12 11 12 12 12 11 13 13 14 16 16 16
25 25 26 25 24 23 22 21 20 18 16 17 17 17 17 17 17 17 17 17 17 17 17 17 15 15 15 15 17 15 15 14 13 13 15 17 19 17
25 25 25 25 26 25 23 22 21 20 20 21 20 19 19 19 19 19 19 19 18 18 18 18 18 18 17 18 20 21 15 15 16 17 18 19 21 23
24 23 23 24 25 25 23 23 22 22 22 22 22 21 20 21 21 20 20 20 20 20 21 19 17 17 19 22 22 20 16 15 16 17 19 20 21 22
24 23 22 22 22 25 23 23 23 23 23 23 23 21 21 22 21 21 22 23 23 22 21 20 20 20 23 22 21 19 18 18 17 18 19 20 19 18
25 24 23 21 23 23 26 25 25 24 24 24 23 23 23 24 23 24 24 25 25 26 24 23 23 23 22 22 21 21 20 21 20 20 19 17 19 20

GFSNE_850_spd_099.txt.gz
Wind_Speed
19 19 18 18 19 19 20 19 16 9 6 7 14 14 13 14 13 14 15 14 14 15 16 16 16 21 21 19 14 13 13 11 11 13 15 16 17 20
21 20 20 19 18 19 18 16 17 17 13 14 16 18 16 16 15 14 14 15 17 18 17 17 17 21 19 14 13 11 10 9 11 13 15 16 16 17
23 21 19 19 19 18 18 17 17 17 16 16 18 19 19 16 16 16 16 16 16 16 17 15 17 22 17 14 12 11 10 9 9 11 12 12 9 12
21 20 20 19 18 18 19 18 19 18 18 18 21 19 16 15 16 17 17 17 15 15 14 17 18 17 14 13 13 11 11 7 7 7 10 9 3 8
21 20 20 17 17 18 19 20 21 19 18 18 17 17 18 18 18 18 18 17 16 16 16 16 19 16 13 11 11 9 9 7 4 4 3 4 2 6
21 20 18 17 18 19 19 20 21 19 16 15 16 19 17 17 17 16 15 15 15 15 15 18 14 14 14 11 10 8 6 6 7 5 2 11 8 11
19 18 18 19 19 20 20 20 18 15 13 12 15 17 16 14 14 12 11 12 12 14 16 12 12 12 11 11 9 7 6 8 9 10 5 6 16 12
19 18 19 18 17 17 16 15 14 12 12 13 14 14 13 13 13 11 10 11 11 10 10 12 11 9 9 9 7 5 5 7 10 12 11 6 7 8
18 17 17 17 16 15 14 12 12 12 13 14 12 12 14 12 12 12 11 13 13 10 9 10 8 8 7 6 5 4 4 4 8 11 14 12 10 6
17 16 15 15 14 13 13 12 13 13 13 15 14 14 14 12 14 14 14 13 11 9 9 9 6 7 6 5 5 3 4 3 3 7 10 13 14 12
17 16 14 14 13 13 15 13 13 13 12 13 13 14 14 14 13 12 12 11 10 8 8 7 5 4 5 5 5 4 4 3 3 2 4 8 12 13
18 16 14 14 13 13 15 14 14 13 12 11 11 11 11 12 12 12 10 10 9 6 7 7 5 3 2 3 3 4 4 3 4 3 2 3 5 7
20 17 15 14 14 16 15 15 14 14 12 12 11 10 11 11 11 11 9 10 10 8 4 6 3 4 3 3 4 4 5 4 5 5 4 5 5 6
21 18 16 14 15 15 15 17 15 15 14 14 13 12 12 10 9 9 9 9 8 7 7 6 4 3 4 5 6 5 6 5 6 7 8 8 8 8
22 19 17 15 16 17 17 16 17 17 16 16 16 15 13 12 11 11 10 10 9 9 8 6 5 4 4 6 7 7 8 7 8 7 7 7 8 9
21 19 18 17 17 17 18 19 18 17 17 17 17 16 15 13 13 12 12 11 11 11 9 7 6 6 6 7 8 9 8 7 7 6 5 6 7 8
20 19 20 21 21 21 21 20 19 20 19 18 18 17 15 14 15 14 14 14 13 12 12 10 9 8 8 8 8 9 10 11 11 11 11 11 11 11
24 23 24 23 24 22 22 22 23 22 21 20 18 17 16 15 15 15 15 15 15 15 15 13 12 12 11 10 10 9 10 11 12 12 12 12 11 11
27 24 23 24 24 24 23 23 23 22 21 20 19 18 17 16 17 16 16 17 17 17 17 16 15 14 15 15 14 12 12 13 15 15 14 14 14 13
27 26 25 24 24 26 25 25 23 22 22 22 22 21 18 18 19 19 18 18 17 17 18 18 17 16 15 17 17 16 16 16 15 15 17 18 18 17
26 25 23 21 23 24 24 25 25 24 23 23 23 23 20 21 21 20 20 18 18 19 20 19 14 15 18 19 20 19 18 15 15 16 17 19 18 20
25 23 22 22 21 22 23 24 26 25 25 25 25 24 23 22 21 21 20 20 21 20 20 18 18 19 19 20 20 20 18 18 15 16 18 19 19 17
24 24 23 23 23 21 21 23 27 26 26 25 25 24 23 23 22 21 21 21 21 22 22 22 22 22 22 22 22 21 19 18 19 20 20 17 18 19

GFSNE_850_spd_102.txt.gz
Wind_Speed
20 21 20 18 19 18 20 20 19 16 11 14 18 18 14 14 13 12 11 12 15 12 15 16 16 15 19 20 19 17 16 13 10 11 14 17 17 18
23 20 21 20 21 22 22 21 20 20 17 14 17 18 17 18 17 14 12 11 12 13 16 14 15 17 18 19 14 13 13 11 11 12 14 15 15 16
25 23 22 22 24 22 21 20 19 17 19 22 22 21 19 18 18 13 13 12 13 15 15 15 15 14 19 16 14 13 12 10 10 10 12 13 10 10
26 25 24 23 22 21 20 20 19 19 21 20 21 18 20 19 14 14 15 15 16 15 13 13 15 15 20 15 14 13 11 10 7 7 11 10 5 2
27 26 24 23 22 21 22 20 20 20 21 21 20 20 18 15 16 16 16 16 16 14 14 16 17 17 15 13 13 11 8 8 5 3 8 4 4 4
28 26 24 24 22 22 23 21 22 23 23 22 21 19 17 16 16 16 14 13 12 12 13 14 16 16 12 13 10 9 7 6 5 4 2 7 5 7
28 26 25 24 23 23 23 23 23 24 24 22 19 17 17 16 14 13 12 11 10 11 12 14 13 13 11 10 8 7 7 6 6 7 3 7 15 7
28 26 25 24 23 25 25 25 24 22 19 18 20 18 14 13 13 12 11 11 10 11 12 9 10 9 8 8 6 5 6 5 7 10 9 5 8 11
27 26 24 23 23 22 22 20 19 19 18 19 17 17 14 12 13 13 12 12 12 11 9 7 7 7 7 5 5 3 3 3 3 7 11 9 4 5
27 26 24 22 22 20 18 18 17 18 19 18 17 16 14 11 13 13 13 13 12 11 9 8 7 5 5 4 3 2 1 2 1 3 8 10 10 8
27 26 25 23 20 18 19 17 17 19 16 17 17 17 15 14 14 14 14 13 14 10 9 8 6 5 4 4 4 2 2 2 1 1 3 7 10 11
29 27 25 22 18 18 19 17 17 18 17 16 15 17 16 15 16 14 13 12 13 8 9 9 7 5 4 3 2 2 2 2 1 1 2 2 4 7
30 28 25 22 19 18 18 20 16 18 17 15 15 16 15 14 14 13 13 12 10 9 6 9 7 7 5 3 2 1 2 2 3 4 4 4 4 5
31 28 24 22 20 20 21 20 18 19 17 17 17 15 14 15 14 13 13 12 12 11 11 10 8 6 5 3 2 2 2 2 3 4 6 6 6 6
34 31 26 23 21 21 22 20 19 20 19 20 19 17 15 13 14 14 13 13 13 13 12 11 9 6 5 3 2 2 2 3 4 5 6 7 8 9
32 31 28 24 23 21 21 22 22 21 20 20 18 18 17 16 16 15 14 13 14 13 13 13 10 8 6 5 3 2 3 2 3 4 3 5 8 8
34 30 30 28 26 25 25 24 22 21 22 21 21 20 18 18 17 16 15 16 15 14 14 14 11 10 8 6 5 4 5 6 7 7 7 8 9 9
36 34 32 30 28 26 26 25 24 23 23 21 21 19 19 19 18 18 17 16 16 15 15 15 13 11 11 9 8 8 7 7 8 9 9 8 8 8
33 36 35 34 29 25 25 25 24 23 20 21 20 19 19 18 19 19 18 17 17 17 16 16 16 15 14 12 11 9 10 9 9 11 13 14 11 11
33 36 35 33 28 25 24 25 24 22 22 21 21 21 21 20 21 20 21 18 16 17 17 16 16 14 14 13 13 11 11 12 13 13 13 14 15 14
35 39 35 30 26 23 22 23 24 23 22 21 22 23 23 22 22 23 20 17 17 18 18 16 10 13 16 16 16 14 11 13 14 13 13 15 15 16
30 33 30 26 23 20 20 21 22 23 25 23 22 23 23 24 23 22 20 20 20 17 16 13 14 17 17 17 16 16 15 15 14 15 15 14 15 14
26 25 25 24 21 20 18 17 19 20 25 24 25 24 24 24 23 23 22 20 19 19 17 17 18 19 19 19 18 18 19 17 16 17 16 16 19 19

GFSNE_850_spd_105.txt.gz
Wind_Speed
28 24 22 24 24 25 24 21 19 18 19 21 21 21 19 17 15 14 13 13 13 15 16 16 16 18 18 19 19 23 20 18 15 12 12 14 17 19
23 22 22 23 24 24 22 20 20 20 22 18 19 19 17 17 17 18 16 14 11 14 15 15 15 16 18 18 20 21 18 15 15 14 14 17 19 18
31 26 26 25 25 24 21 21 22 22 23 25 24 21 21 23 20 19 16 12 12 13 14 15 15 15 15 17 22 17 17 15 14 12 14 16 17 14
29 28 28 28 27 25 22 22 23 22 22 23 23 23 22 21 17 19 16 15 15 15 16 16 16 16 18 20 20 15 15 13 12 9 9 14 13 6
30 30 28 29 27 26 24 24 23 22 22 21 21 22 22 22 21 18 18 16 17 16 16 17 17 17 17 21 16 14 12 11 8 5 6 7 7 3
30 29 30 29 27 26 25 24 22 21 21 20 22 23 23 21 20 19 17 17 17 16 16 17 16 15 17 15 12 13 10 9 7 5 3 6 0 1
30 28 27 27 26 26 25 23 22 22 23 22 24 24 24 20 19 16 16 17 16 16 16 15 15 16 12 12 10 10 8 8 8 7 3 5 2 4
25 27 27 28 27 27 25 26 25 24 25 23 24 25 23 18 18 15 17 15 15 16 15 16 15 11 10 9 7 7 6 5 6 8 8 2 5 7
27 27 28 27 27 27 28 26 26 26 25 23 22 21 20 17 15 16 16 16 15 14 11 12 10 9 7 8 5 4 4 4 2 6 9 6 2 8
27 28 28 28 27 27 27 26 26 24 24 21 19 17 16 15 15 14 16 17 17 16 13 14 10 10 7 6 4 3 2 1 1 2 7 9 6 5
29 30 30 29 28 29 29 27 26 24 23 21 20 18 18 15 16 18 22 19 20 15 13 13 10 8 7 6 5 3 2 2 0 0 3 7 9 10
31 32 32 31 30 30 29 27 26 23 21 20 20 19 21 19 21 19 21 19 19 13 14 15 11 9 6 6 5 4 3 2 2 1 1 2 6 9
33 34 33 33 32 31 31 28 25 19 18 20 20 20 21 23 20 20 21 18 16 13 9 16 12 11 7 7 5 4 3 3 3 3 3 3 3 5
34 33 33 31 30 29 28 26 22 23 22 22 21 22 22 21 19 18 18 17 16 15 14 13 11 11 9 6 5 4 3 3 4 5 6 6 5 5
32 33 33 29 29 29 29 28 25 28 25 25 25 23 19 18 19 18 18 16 16 17 17 15 14 12 10 8 6 5 4 3 4 5 7 8 9 9
31 31 32 32 30 31 29 30 32 29 26 25 22 20 21 20 19 17 16 16 17 18 18 16 16 13 12 9 8 7 5 3 3 4 5 7 8 8
32 31 32 34 32 32 32 32 34 31 28 26 24 24 22 21 20 18 18 18 19 18 17 17 18 15 13 11 9 8 6 5 5 6 7 8 9 9
32 33 35 36 36 35 35 35 34 32 27 26 26 25 23 22 21 21 21 20 19 17 17 18 18 16 15 13 11 9 8 8 7 7 8 8 10 10
30 33 36 36 39 36 34 33 35 35 26 27 27 24 22 21 22 23 22 21 19 19 18 17 19 19 17 14 12 10 10 10 10 9 10 11 12 12
33 33 39 40 35 36 32 33 32 31 26 29 27 24 22 22 24 24 23 22 19 18 18 19 20 19 17 14 14 13 12 12 12 12 11 11 11 13
29 33 34 36 33 31 29 28 28 29 26 28 27 25 24 24 24 23 21 20 18 18 20 19 13 14 18 18 17 14 11 12 13 12 12 12 12 13
26 29 32 33 30 25 23 24 25 27 28 30 28 25 24 24 24 23 21 21 20 21 17 13 15 19 19 18 15 14 13 14 15 14 14 14 13 9
19 23 24 26 27 25 24 23 24 25 26 26 29 25 24 25 24 23 21 20 20 20 18 17 18 18 17 16 17 18 17 16 17 18 16 15 16 16

GFSNE_850_spd_108.txt.gz
Wind_Speed
31 24 27 22 24 22 24 27 26 22 21 23 24 23 21 20 18 15 16 15 16 16 17 19 21 21 20 20 22 25 22 25 23 20 18 16 17 17
29 29 29 28 27 27 28 27 26 23 23 19 19 20 19 18 17 17 18 17 16 16 16 18 20 18 18 19 22 22 24 25 21 19 17 17 19 19
34 33 33 29 27 25 25 25 24 23 24 23 22 21 20 19 18 20 20 18 16 14 13 16 17 17 19 19 20 22 26 21 19 18 15 14 18 16
40 39 40 35 33 29 27 26 24 24 23 23 22 22 23 22 22 18 18 19 17 14 16 18 18 19 19 20 20 23 21 19 16 14 11 11 12 12
32 36 41 38 30 32 29 26 24 25 23 24 23 22 22 22 21 19 20 18 17 16 18 19 19 18 19 20 21 22 18 17 14 10 6 9 8 11
30 31 34 33 29 31 27 25 26 25 25 25 24 24 23 21 22 22 21 18 17 18 18 17 18 18 18 18 20 18 16 14 13 7 4 7 4 5
27 28 29 30 32 34 27 27 26 27 25 25 25 26 26 24 23 18 18 16 17 17 17 18 17 16 18 19 16 15 13 13 11 5 5 4 7 3
27 27 29 29 29 27 27 28 26 25 27 25 27 30 28 25 24 19 17 16 17 16 18 18 18 17 17 16 14 12 11 9 7 5 7 3 3 8
24 24 25 26 26 27 29 30 29 30 31 31 32 29 27 22 19 20 19 16 16 17 14 16 15 13 12 13 12 9 7 7 4 5 11 8 1 6
25 26 27 27 27 27 28 29 29 29 28 30 28 23 21 18 20 18 15 15 18 17 18 18 15 12 11 12 10 8 7 4 4 3 6 9 7 3
25 26 27 28 27 27 29 30 29 31 29 29 26 24 21 18 18 20 21 21 21 20 20 16 15 11 11 12 10 8 6 4 3 1 2 7 10 7
29 28 29 29 28 28 31 32 32 30 29 28 26 24 23 21 21 20 19 22 22 18 20 19 16 11 8 13 11 8 7 5 3 1 1 2 7 11
31 31 29 28 29 29 31 32 30 26 27 26 24 24 23 23 22 22 22 22 21 20 12 16 15 15 11 6 8 8 7 5 4 3 3 3 3 5
29 30 30 27 27 30 31 31 28 27 26 26 24 25 25 25 22 23 23 23 23 21 20 15 16 15 15 9 7 8 6 4 3 4 5 5 4 4
26 28 27 26 27 25 30 30 28 30 29 30 28 26 22 20 22 22 23 23 23 21 21 19 16 14 15 12 9 8 7 4 4 4 5 6 6 6
25 25 27 26 25 25 26 28 31 33 32 32 28 23 22 23 23 22 22 22 22 22 22 21 18 18 16 14 11 9 7 4 3 3 4 5 6 6
27 26 25 29 29 28 27 32 33 33 33 33 28 24 24 24 24 22 22 22 23 23 23 21 20 20 17 15 13 11 9 7 6 6 7 7 7 6
28 28 28 28 31 32 31 32 35 36 36 34 29 31 26 25 25 24 23 23 22 21 21 21 21 21 19 16 15 13 11 9 8 7 7 8 9 8
29 28 29 30 29 30 33 33 35 35 34 33 31 30 28 26 26 26 25 24 24 22 21 21 22 22 19 18 15 14 12 12 11 10 10 9 10 11
23 25 28 32 33 31 32 33 34 33 31 33 32 29 26 26 28 28 27 27 25 24 23 23 23 21 18 15 14 13 14 14 13 12 12 10 11 12
21 24 25 27 31 32 31 31 31 32 32 33 33 30 26 24 28 27 27 26 24 24 23 23 18 16 17 18 17 14 14 13 13 13 13 11 11 12
21 20 23 24 24 26 26 25 26 28 31 34 34 33 26 26 27 27 26 26 26 23 21 17 17 19 20 19 15 14 14 14 14 14 14 12 11 8
22 20 19 19 20 22 23 23 23 25 30 30 31 31 29 28 27 26 24 23 22 21 20 19 18 21 19 17 15 15 15 14 16 16 16 15 14 15

GFSNE_850_spd_111.txt.gz
Wind_Speed
31 33 38 38 37 35 31 28 28 21 30 31 27 25 23 22 20 19 17 16 15 16 17 18 20 20 21 23 23 21 23 23 25 26 23 21 19 19
31 33 37 36 30 28 27 29 30 32 32 21 22 23 19 20 20 19 18 17 18 18 18 19 19 20 22 21 20 21 22 23 26 21 20 19 17 18
32 30 32 31 33 33 32 33 39 37 33 28 24 21 21 21 20 20 20 20 21 19 18 18 17 17 18 19 21 21 22 25 23 19 17 14 15 14
30 31 30 33 40 38 40 35 35 31 27 27 28 25 24 21 21 22 23 23 21 19 17 15 17 17 18 19 21 21 22 23 19 17 13 10 12 12
29 30 32 33 34 36 33 36 36 31 28 29 29 24 24 23 24 25 24 22 21 18 18 16 17 16 18 19 18 21 20 18 16 14 10 7 10 11
28 30 32 33 33 38 32 35 35 31 26 25 29 25 23 26 25 26 24 22 22 20 19 18 18 16 16 17 18 20 17 17 14 11 6 5 9 8
26 29 30 29 30 31 31 31 29 29 26 25 29 26 20 28 31 26 23 22 23 21 19 17 17 16 15 16 17 17 16 13 11 7 6 3 5 6
27 27 28 28 29 29 30 31 27 28 29 28 28 30 21 27 28 27 26 25 24 20 19 18 17 15 15 17 16 14 12 10 8 5 8 7 3 5
27 26 28 27 25 25 25 27 26 28 28 28 27 34 25 25 28 29 29 28 22 17 12 14 15 14 16 14 13 11 9 7 4 4 8 9 3 3
30 28 27 26 26 26 27 28 29 28 29 29 31 28 26 25 28 27 21 20 19 18 18 17 16 13 14 12 12 10 7 5 3 3 6 11 8 2
31 30 29 29 26 25 27 28 28 28 26 27 28 27 27 25 26 23 24 22 23 22 20 18 17 12 14 13 12 10 7 6 3 2 4 8 11 9
30 31 30 29 28 27 29 29 31 31 27 28 29 28 28 26 25 22 22 24 25 20 21 21 18 12 8 14 13 10 9 6 4 3 3 4 8 11
30 31 30 30 26 26 27 29 31 29 27 27 28 28 26 25 25 23 21 22 23 20 12 17 19 16 14 4 13 12 9 7 5 3 3 2 2 6
28 27 27 29 27 24 23 26 27 28 26 27 28 28 27 25 26 24 24 24 24 22 22 18 13 15 17 12 8 11 9 7 6 5 4 3 2 3
28 28 27 27 27 24 21 20 22 28 29 28 30 31 28 23 23 25 26 26 25 24 24 22 19 15 15 16 12 9 10 8 6 5 3 3 3 3
29 32 31 26 25 25 22 20 22 26 28 30 29 31 28 27 25 24 25 25 26 25 25 22 21 17 16 17 13 11 11 7 8 5 4 3 3 4
32 33 33 30 27 24 24 22 21 22 28 29 28 27 28 26 26 24 24 23 25 24 24 23 22 20 20 19 15 13 12 10 7 5 4 3 3 4
29 30 31 29 30 28 26 24 25 24 28 31 28 27 27 29 28 24 23 23 22 22 22 22 22 22 21 18 18 16 15 12 9 6 5 4 4 5
24 27 26 25 28 29 26 26 25 24 25 27 31 29 29 28 29 30 27 22 23 22 20 21 22 22 22 21 19 18 16 14 12 10 7 6 5 5
23 24 25 23 24 25 26 26 25 23 25 26 26 27 27 27 28 29 27 26 23 23 22 21 22 22 21 19 16 17 18 16 13 12 9 7 7 7
24 23 24 23 23 23 24 24 25 26 24 25 25 26 27 29 29 29 26 24 23 23 24 23 18 17 19 19 18 17 16 16 15 14 11 9 9 8
25 26 25 25 24 22 22 22 22 23 23 25 24 25 28 30 30 29 25 22 24 24 22 19 19 21 21 22 20 17 16 16 16 14 12 10 9 5
25 26 26 25 25 23 21 21 20 21 22 23 23 24 28 29 28 27 22 20 23 22 23 20 21 22 22 20 18 17 18 16 16 14 12 11 11 12

GFSNE_850_spd_114.txt.gz
Wind_Speed
32 34 34 34 33 34 37 41 39 30 28 31 35 29 29 32 32 26 27 23 21 19 18 19 21 22 22 21 22 21 21 21 22 22 24 21 17 16
31 37 35 34 36 36 35 38 34 31 32 28 28 29 34 33 29 29 27 24 21 20 20 20 21 22 21 21 22 20 19 20 21 22 21 16 14 12
30 30 32 33 33 29 30 29 33 34 36 36 35 31 27 26 27 28 26 23 22 21 21 20 20 20 20 19 19 18 19 19 20 20 17 14 10 9
21 23 24 28 28 29 32 32 39 39 37 38 35 29 26 25 27 27 24 25 22 21 21 21 20 19 19 20 19 18 18 19 19 15 12 10 8 7
28 29 30 30 31 31 31 34 33 31 34 35 34 29 25 25 27 28 24 25 24 22 21 20 20 20 19 19 19 17 17 16 15 12 9 6 5 7
24 25 26 28 29 28 30 31 31 31 30 34 33 31 30 26 26 26 24 26 26 22 23 23 22 23 20 19 18 17 17 15 12 9 6 5 4 7
25 26 27 28 30 32 32 29 28 27 28 31 33 32 32 32 33 28 22 22 25 26 27 25 24 22 21 19 18 19 15 14 10 8 6 6 1 4
29 29 28 27 27 27 28 30 30 27 27 28 34 33 35 34 29 27 24 25 27 30 28 27 25 22 20 18 18 17 14 12 9 7 7 9 6 7
31 32 33 31 29 28 29 28 28 25 27 28 32 35 33 35 30 27 28 29 28 29 24 17 22 21 20 19 18 15 11 10 8 7 8 11 8 5
30 30 31 31 28 30 31 30 30 29 27 29 32 35 33 28 30 24 26 25 27 27 24 22 19 19 17 17 15 13 11 9 8 6 6 11 11 6
31 31 28 28 28 29 31 32 31 31 29 30 30 29 30 27 29 27 29 28 28 27 25 23 22 18 17 17 17 15 11 8 7 4 4 7 13 11
33 31 28 27 28 29 27 29 32 31 30 30 29 27 31 27 28 28 26 29 27 25 25 25 21 16 12 18 19 16 12 9 7 4 3 3 8 11
28 29 28 28 27 29 27 27 30 30 28 28 28 29 28 28 32 28 25 27 28 28 13 22 23 22 18 6 17 17 13 10 8 6 5 4 4 7
30 30 31 29 29 29 29 29 26 25 28 27 26 26 29 30 29 27 23 27 22 20 23 16 17 19 20 17 8 17 15 12 10 9 7 5 5 5
29 29 30 31 32 33 32 30 27 24 27 27 28 27 27 30 27 28 25 27 23 23 25 21 20 15 13 17 15 14 16 13 11 10 8 7 6 5
33 33 33 30 30 29 26 25 25 23 26 26 25 26 23 25 27 27 28 25 23 24 25 24 21 18 17 16 16 14 16 11 13 11 9 8 6 6
30 32 31 29 29 28 27 23 23 21 24 23 24 26 23 20 24 26 25 25 25 25 24 23 23 22 19 16 18 15 16 13 15 12 10 8 6 6
29 28 28 26 28 25 26 26 24 21 21 24 23 25 23 20 24 26 27 28 27 24 25 26 23 23 21 19 20 18 18 17 15 12 9 8 7 6
24 25 25 27 26 25 22 22 24 23 20 21 20 23 25 24 25 28 28 27 26 25 24 23 23 23 24 23 22 21 18 17 15 12 10 8 7 7
24 26 26 28 27 26 24 21 21 20 22 22 22 22 23 24 27 28 28 28 27 24 21 18 21 23 23 22 18 21 20 18 16 13 11 7 6 6
27 27 25 26 26 24 25 23 20 19 19 21 21 22 23 23 26 27 27 27 28 29 24 23 20 19 18 20 19 19 21 19 16 13 11 9 7 7
28 28 26 26 27 23 24 24 21 19 18 19 21 21 20 21 24 26 27 29 29 25 21 18 18 22 24 22 19 19 19 20 18 16 14 12 8 5
28 26 25 26 27 23 23 23 21 19 18 17 18 19 20 21 22 24 26 27 26 23 22 20 23 21 20 21 19 18 17 17 17 16 14 12 11 9

GFSNE_850_spd_117.txt.gz
Wind_Speed
24 25 26 28 33 39 36 32 32 31 35 37 43 36 29 25 30 32 28 29 24 24 24 25 25 25 26 26 23 23 23 23 23 22 22 21 21 17
25 25 30 32 32 38 34 32 32 34 38 36 33 29 26 26 27 31 31 31 26 24 27 24 25 26 25 23 23 22 23 21 21 22 22 20 18 17
24 27 29 26 26 24 24 28 29 26 30 37 37 36 33 29 32 33 33 29 29 27 27 27 25 25 25 25 23 21 21 21 21 21 23 17 15 14
26 28 26 24 25 27 28 31 30 30 32 35 34 33 38 37 32 33 32 32 31 30 28 28 26 27 25 23 23 21 20 21 20 20 20 15 13 12
21 23 25 28 30 30 31 33 32 32 32 33 35 34 35 35 32 32 34 31 30 28 27 28 28 26 24 22 22 20 20 20 20 19 16 13 12 12
17 20 21 23 25 26 28 29 31 32 32 34 33 33 36 38 38 35 35 33 34 30 27 28 29 28 26 23 22 21 21 19 18 17 15 13 13 10
19 21 22 24 25 26 28 29 29 30 30 30 33 34 35 35 37 36 41 37 34 31 30 30 32 30 28 26 22 22 21 18 18 17 14 14 14 9
23 24 25 27 27 27 27 27 28 29 29 29 31 36 37 37 41 39 38 39 35 35 34 32 32 31 28 27 23 22 20 16 17 16 13 14 15 12
22 24 26 26 26 27 28 27 28 28 30 31 33 34 35 38 37 40 39 44 36 36 34 36 34 31 28 26 23 22 20 17 17 15 12 14 16 14
22 23 25 27 26 25 27 28 30 31 29 29 32 36 37 35 36 34 39 42 37 35 31 30 28 26 25 24 23 22 20 17 16 13 11 13 17 15
24 24 24 23 22 22 25 28 30 32 33 32 30 32 34 32 33 31 29 32 38 37 33 31 27 23 23 23 23 22 19 16 15 12 11 12 16 16
26 27 28 25 23 23 23 26 33 34 32 31 32 32 29 28 30 28 27 32 35 31 30 30 25 21 18 24 23 23 20 17 15 13 10 10 12 15
28 28 28 29 30 28 25 28 31 33 32 31 31 30 28 29 29 29 30 28 28 30 21 24 28 25 20 12 25 24 21 18 16 13 11 9 8 10
27 28 29 31 30 30 29 29 28 29 32 32 30 30 27 27 30 31 26 28 30 24 22 20 22 28 29 18 10 25 23 20 18 15 12 9 8 6
29 29 30 31 31 29 27 26 25 26 27 28 29 27 28 24 27 28 28 28 25 23 21 22 19 17 24 24 20 13 25 23 20 17 14 11 8 6
30 31 32 30 28 26 27 23 23 22 23 24 24 23 24 24 21 23 25 24 24 22 20 22 23 18 15 18 18 17 24 17 22 18 15 12 10 8
26 31 30 29 30 29 27 25 21 23 22 20 21 21 22 20 19 19 21 24 24 24 24 23 24 21 17 15 18 15 22 18 22 18 16 14 11 10
28 27 25 25 26 27 26 26 23 20 20 18 17 19 20 19 18 19 21 23 25 24 23 23 25 24 20 19 18 18 21 19 22 20 17 15 13 11
24 22 23 25 26 26 25 24 25 22 19 18 16 17 17 16 18 18 21 23 23 22 23 23 22 21 22 22 19 19 19 20 22 20 17 14 12 11
24 23 24 25 24 24 25 23 24 22 21 18 16 16 16 17 20 18 20 23 24 25 25 26 26 24 25 23 19 23 22 20 21 19 17 14 12 11
24 23 26 25 24 24 26 23 22 21 21 21 17 15 14 16 19 19 19 21 24 24 24 23 20 19 19 17 17 23 24 23 19 17 16 13 12 11
23 25 25 24 24 23 25 24 23 23 20 20 17 15 14 15 18 17 17 19 23 23 23 24 24 23 23 20 19 21 27 26 24 21 17 13 11 9
25 25 26 24 23 23 24 24 24 24 22 18 17 15 14 14 15 16 16 18 21 21 21 23 22 22 24 20 19 22 29 27 26 22 18 15 11 9

GFSNE_850_spd_120.txt.gz
Wind_Speed
25 28 23 23 25 26 26 30 33 36 38 33 35 35 37 35 26 26 29 29 38 33 32 30 31 31 28 28 32 31 29 30 28 28 28 26 27 26
24 20 21 23 26 29 32 32 30 38 35 35 36 33 29 29 28 29 31 30 32 36 35 37 35 32 28 29 30 29 29 28 27 27 26 26 26 26
23 27 31 33 33 33 30 29 26 27 32 34 35 34 32 29 30 33 36 34 36 39 40 39 36 33 30 31 29 30 28 26 27 28 25 25 26 24
27 27 19 23 25 24 24 25 29 31 35 39 38 37 35 34 32 33 35 39 42 42 43 41 38 35 31 30 29 28 27 27 27 26 27 25 23 21
12 15 17 19 21 22 24 26 28 30 31 33 36 36 36 35 35 37 38 40 44 44 44 43 38 35 31 30 29 26 26 25 24 26 25 25 24 20
12 14 16 18 20 22 24 26 27 29 31 34 36 37 36 34 34 35 38 40 44 47 46 43 40 36 33 31 30 29 27 24 26 25 26 23 22 19
14 15 17 20 22 24 25 26 26 27 28 31 33 35 37 36 35 36 39 38 47 48 45 42 38 36 36 34 35 31 26 25 25 24 24 22 20 19
15 16 18 19 20 23 24 23 24 27 28 30 30 32 33 35 37 37 38 40 44 44 49 48 41 39 39 37 37 29 26 25 25 24 25 23 21 20
17 18 18 19 20 21 22 23 24 24 24 27 31 33 36 35 36 39 39 39 42 43 40 48 45 45 42 40 34 29 28 26 26 23 23 22 20 19
14 15 16 17 16 20 22 22 23 22 25 27 30 31 34 33 34 37 39 41 40 40 39 37 47 48 46 40 33 30 27 27 26 22 22 21 19 18
16 16 18 17 18 23 24 27 28 28 27 28 29 31 32 30 31 31 37 37 38 38 35 37 40 37 39 35 31 29 27 28 23 20 22 19 16 17
17 18 19 22 24 25 27 30 32 31 30 31 31 32 33 32 30 28 31 36 36 34 33 32 34 26 20 24 25 26 26 27 23 20 20 16 14 15
21 21 21 22 23 24 25 27 27 29 31 29 30 33 31 32 30 29 27 31 33 33 34 26 32 31 25 12 26 26 26 24 22 21 18 14 12 11
21 21 23 25 26 25 25 24 26 25 26 26 28 30 29 29 27 25 26 26 30 28 24 23 22 24 28 24 14 26 28 26 22 20 17 13 10 8
20 21 21 27 26 24 24 24 23 21 21 23 26 27 25 24 23 22 21 21 25 27 24 21 20 22 26 28 19 9 30 27 23 20 17 14 10 8
22 23 28 28 25 25 24 23 21 20 19 21 23 23 22 19 19 17 18 17 20 23 25 20 20 21 18 21 21 17 13 17 24 21 18 14 12 10
23 26 28 28 27 26 24 22 21 20 20 19 20 21 20 18 16 15 15 15 18 19 19 17 17 17 17 12 10 13 15 22 17 21 18 15 13 12
21 22 21 23 24 25 25 25 24 22 21 21 20 19 19 16 15 13 14 15 15 16 16 17 19 21 17 14 12 12 15 23 17 20 17 15 14 13
20 18 19 21 22 23 23 23 25 23 23 21 20 19 17 15 14 14 14 13 15 15 16 17 18 21 19 16 14 14 17 17 21 21 18 16 14 13
18 17 21 21 24 23 23 23 24 24 22 22 23 21 17 16 15 15 15 15 15 17 17 17 18 19 20 18 17 16 15 15 19 20 20 17 15 13
18 19 20 23 23 22 22 23 23 24 24 23 22 20 18 16 15 15 16 15 15 18 19 19 18 17 14 13 14 17 18 18 19 18 18 16 15 13
19 22 23 22 23 22 23 23 23 23 23 24 21 18 18 16 15 15 16 14 14 15 19 18 17 18 18 20 16 18 23 24 18 16 16 13 13 10
20 22 22 23 22 22 23 23 23 23 23 24 21 19 17 15 13 14 14 12 13 14 17 18 19 19 20 22 21 19 27 26 22 19 17 12 10 8

GFSNE_850_spd_123.txt.gz
Wind_Speed
24 25 23 22 20 23 25 27 28 25 30 36 31 39 37 30 34 34 33 32 30 33 33 35 38 38 37 37 36 35 34 34 37 34 32 30 29 27
24 22 22 22 24 23 23 26 28 30 33 34 37 33 31 31 31 33 34 32 34 33 35 36 34 37 39 39 38 36 35 36 33 32 31 30 29 27
17 20 23 26 24 26 27 28 26 26 31 30 29 31 35 37 37 36 32 35 35 33 35 39 37 40 43 41 40 38 36 34 33 32 30 30 29 28
19 20 23 28 25 23 24 24 25 26 28 33 36 37 37 37 36 34 34 33 35 34 33 36 44 47 47 45 43 40 36 35 33 30 30 28 28 30
12 11 13 16 16 18 19 21 24 26 27 29 32 30 34 33 34 36 37 38 39 37 34 34 41 48 48 48 45 41 39 36 33 30 28 27 27 27
7 9 11 13 16 19 20 21 23 25 27 27 25 26 27 28 30 32 36 34 36 35 36 37 38 44 47 49 45 40 37 34 30 27 26 28 27 27
9 10 12 13 16 18 20 21 22 23 25 27 28 29 29 31 32 33 35 37 36 36 37 37 37 41 48 48 45 40 38 35 29 25 27 29 27 26
8 9 10 12 13 14 15 18 20 20 23 23 25 26 28 31 32 33 35 39 38 34 37 40 36 38 44 49 50 45 40 39 32 26 27 27 27 25
9 10 10 11 13 16 17 19 21 22 21 20 24 25 28 28 30 33 32 34 37 40 37 40 37 42 38 46 52 45 40 36 30 26 25 24 27 25
8 9 9 11 13 16 19 20 20 20 20 21 24 27 26 29 30 32 33 35 38 38 35 40 40 40 40 41 44 45 42 36 29 25 25 24 25 23
9 9 11 11 15 19 20 22 24 26 26 25 26 27 28 27 27 29 31 33 34 35 32 34 38 38 39 38 35 39 36 31 28 26 24 23 23 21
10 10 10 16 20 21 22 24 26 27 30 32 32 31 28 27 25 25 26 30 28 32 30 24 27 28 28 35 35 33 34 35 31 26 25 20 19 16
13 14 16 20 21 22 23 22 21 24 28 27 26 27 27 27 23 24 21 26 26 29 33 30 27 25 28 21 17 21 25 26 28 26 21 18 15 14
16 17 19 20 22 23 24 24 24 23 23 24 21 23 25 26 25 24 22 23 23 25 25 26 24 18 21 27 22 19 21 23 24 21 17 16 12 10
16 20 22 24 24 23 23 24 22 21 21 22 23 23 23 26 24 23 19 19 19 17 19 20 21 19 19 23 24 15 20 21 21 15 15 14 11 8
18 20 21 23 23 23 22 22 20 18 18 21 24 26 22 23 22 20 17 16 16 15 15 15 16 16 15 16 16 14 8 12 21 17 14 13 12 10
18 18 20 21 23 24 22 22 20 19 20 21 23 24 21 20 20 18 16 15 15 16 14 12 12 14 15 13 12 10 12 10 10 19 16 14 12 10
17 18 20 21 22 24 24 25 23 20 21 23 22 23 22 20 18 18 14 15 15 14 13 11 10 10 11 10 10 7 9 9 12 19 16 14 13 11
16 17 18 19 20 21 24 23 24 21 21 21 21 22 22 20 17 17 15 15 15 12 12 10 10 11 14 11 10 6 7 9 12 19 16 15 15 13
15 17 18 19 20 22 22 23 23 22 21 20 21 20 19 18 17 16 16 15 14 13 12 10 9 12 15 14 12 11 9 9 14 17 16 16 15 13
15 17 18 19 21 21 22 21 22 22 21 21 20 19 17 17 16 15 16 14 14 13 13 11 10 9 10 11 11 15 12 14 12 14 16 14 15 15
15 17 17 19 21 21 22 22 22 21 21 22 20 19 17 16 16 16 14 14 12 13 11 12 10 9 11 10 13 18 19 21 20 13 12 11 12 9
16 18 19 20 20 21 21 22 22 22 22 22 20 19 19 18 14 15 13 13 11 11 11 10 12 12 14 14 14 19 23 23 22 16 13 10 9 11

GFSNE_850_spd_126.txt.gz
Wind_Speed
25 30 34 28 22 21 21 23 27 24 23 30 28 30 32 31 30 26 25 30 31 32 33 34 34 31 31 33 33 38 35 36 38 37 37 36 36 35
26 24 22 23 18 20 22 23 23 24 25 24 32 33 27 24 24 28 31 34 36 40 41 37 35 34 32 35 34 37 38 39 39 39 37 37 36 35
18 17 14 18 19 21 20 21 21 22 23 22 19 23 27 31 34 35 36 35 35 35 35 35 35 36 34 32 36 40 43 43 42 40 39 37 35 34
17 16 20 21 22 22 22 24 23 18 19 24 27 29 30 31 32 32 32 31 32 32 32 32 35 34 36 37 35 37 45 45 43 41 39 37 35 33
11 13 13 12 12 12 13 16 18 20 21 23 27 28 29 30 32 34 34 34 32 32 31 31 32 33 33 33 34 36 39 44 44 43 40 37 33 31
5 7 8 10 11 12 15 17 19 21 23 24 26 26 26 25 26 29 33 31 34 32 33 32 32 32 29 30 32 35 38 41 42 44 42 36 32 29
6 8 8 10 11 15 15 17 19 20 21 22 23 23 25 24 26 26 28 30 31 30 33 32 34 34 33 30 26 29 41 45 44 44 41 35 31 31
5 6 8 10 12 13 15 15 16 18 19 21 22 24 24 23 25 28 30 33 36 29 30 35 35 36 34 38 31 26 28 38 49 44 39 33 32 28
4 5 7 10 12 13 14 15 17 18 19 20 21 23 27 27 29 30 30 30 34 34 34 40 35 36 35 36 30 26 24 35 46 45 37 30 28 25
5 7 8 11 13 14 16 16 15 15 15 17 19 21 22 22 23 24 25 29 32 32 30 36 32 34 34 33 31 28 28 27 40 41 33 35 32 29
5 6 8 10 12 16 18 20 21 21 20 21 22 21 19 18 19 23 26 28 30 27 26 32 31 33 32 28 24 23 23 23 32 36 33 31 28 27
5 7 10 13 16 18 20 22 22 21 22 23 22 21 19 18 18 18 18 23 26 26 27 24 30 28 23 21 20 24 23 24 28 32 34 28 24 21
7 8 11 15 17 19 20 19 18 20 21 21 21 20 19 19 18 20 18 22 25 25 26 26 28 22 25 28 23 23 20 18 24 24 26 24 22 16
9 11 13 16 17 19 19 20 18 18 19 19 19 20 21 19 18 21 22 23 21 23 23 19 20 20 21 20 23 21 18 14 22 24 21 19 15 12
13 14 16 17 18 19 19 19 19 19 19 18 19 20 21 20 15 18 20 20 19 19 17 14 13 14 16 19 19 17 13 12 15 17 15 13 11 9
15 16 18 18 18 19 19 19 20 20 18 18 20 22 21 21 15 16 19 18 18 15 15 13 12 14 16 15 13 10 9 8 9 14 9 10 8 6
17 17 17 17 19 20 21 20 20 20 18 17 20 20 20 20 18 14 16 16 16 19 15 13 13 12 11 12 9 8 7 9 8 12 11 9 9 6
17 17 17 18 19 20 22 21 22 18 17 20 18 18 20 19 21 17 16 15 16 17 16 11 12 10 6 3 4 4 5 6 6 10 13 11 10 7
18 17 18 19 19 21 21 22 21 21 20 18 17 16 17 17 18 18 17 14 15 15 14 11 11 10 9 6 5 4 4 5 9 16 12 9 7 7
17 18 19 20 19 20 21 21 22 20 19 18 19 18 17 16 17 18 16 16 15 15 14 11 9 9 9 9 5 4 3 7 11 16 13 11 9 10
18 18 19 19 19 20 20 20 21 21 19 19 18 17 16 16 16 16 17 15 14 14 14 10 7 6 7 7 6 8 6 8 11 11 11 10 11 12
19 18 18 18 18 19 20 19 19 20 19 19 18 17 16 16 17 16 15 16 14 13 11 9 6 5 6 8 9 14 12 13 14 13 12 10 10 8
19 17 18 18 17 18 19 18 20 21 20 19 18 17 16 18 18 17 14 15 13 11 10 9 7 8 9 7 8 15 18 18 20 17 14 10 8 12

GFSNE_850_spd_129.txt.gz
Wind_Speed
28 28 30 27 26 29 32 27 22 18 21 24 19 17 16 16 24 25 23 25 27 32 32 34 35 38 39 39 35 33 32 31 30 30 33 36 36 33
27 27 27 26 27 19 18 18 18 22 22 21 16 18 26 23 23 24 26 30 34 36 38 39 39 38 38 37 35 33 31 31 33 31 34 36 39 37
29 29 30 27 22 19 18 18 22 21 18 17 17 18 23 24 28 31 33 34 34 34 34 36 37 37 38 38 38 38 35 33 33 34 39 40 41 41
23 22 21 16 18 18 19 21 26 23 21 21 23 25 26 28 31 33 34 33 33 32 33 33 34 33 34 35 35 38 37 35 34 32 37 40 42 41
14 18 13 15 12 14 14 13 14 15 18 20 24 25 27 27 28 28 29 29 30 30 30 30 29 28 28 30 29 27 31 33 34 31 34 39 41 42
3 4 5 7 9 10 11 12 14 15 17 19 21 23 24 24 25 27 29 28 30 31 32 29 27 26 26 27 27 26 24 26 30 33 32 33 40 45
4 5 6 7 9 9 11 12 14 16 17 19 20 21 22 24 25 27 30 32 30 30 29 26 28 28 30 31 29 28 27 25 28 30 30 31 36 44
5 7 6 7 9 10 12 14 15 17 19 20 21 23 23 23 24 26 27 29 29 28 29 32 31 31 27 29 25 24 27 24 22 22 26 36 40 40
4 4 6 7 7 9 11 13 15 17 19 21 21 21 22 22 22 23 23 24 28 30 31 35 31 32 29 27 24 25 26 23 23 22 24 29 36 39
4 4 6 8 9 11 13 14 14 15 16 17 19 20 21 21 20 20 23 26 28 27 23 32 32 27 27 28 22 24 20 20 21 23 23 29 31 36
5 6 7 8 10 12 14 15 15 16 16 18 20 20 18 17 13 16 20 23 27 28 27 26 27 28 33 31 20 17 19 20 22 19 17 28 33 29
6 7 9 10 12 15 16 17 18 19 20 19 20 21 20 17 13 12 16 21 24 27 26 25 30 26 26 23 20 26 21 18 15 13 18 23 25 26
8 8 9 12 15 15 16 16 16 17 20 21 22 21 20 19 19 15 13 17 22 25 24 23 28 26 23 24 27 25 22 18 13 17 18 24 24 25
10 11 12 13 15 16 15 15 15 18 20 21 22 21 22 22 19 15 13 16 19 22 21 20 23 21 23 27 27 26 24 19 12 15 18 19 19 20
13 14 15 16 16 16 17 18 19 20 21 21 20 21 21 21 19 17 14 14 16 17 19 19 19 19 18 21 24 23 22 17 10 7 12 15 15 12
17 17 17 17 16 16 18 18 20 20 21 19 18 20 19 19 19 18 18 16 17 14 15 17 16 16 17 17 17 17 17 11 9 6 8 12 8 7
18 17 17 16 16 17 18 21 21 21 20 18 20 19 19 19 18 17 17 17 18 19 18 18 15 13 11 13 15 14 14 11 9 8 8 5 5 3
18 19 17 17 18 18 19 22 22 20 19 19 19 18 18 18 19 17 17 17 18 16 18 17 13 12 11 11 10 10 8 8 6 5 7 7 4 2
18 19 18 18 18 19 20 20 20 18 19 19 18 17 18 17 16 17 16 17 18 16 16 15 12 11 10 11 12 10 9 6 4 7 7 6 5 4
17 17 18 19 19 19 17 18 18 18 19 18 18 18 17 16 17 17 15 16 18 17 16 15 11 9 9 9 12 11 6 5 6 9 7 6 6 6
16 16 15 15 15 16 16 17 18 18 18 19 18 17 16 16 16 16 17 15 15 15 17 14 10 9 6 7 9 6 3 4 7 7 9 9 8 8
16 16 16 15 15 15 16 17 18 18 18 19 19 18 17 16 17 17 18 17 14 16 15 12 9 5 4 7 8 8 6 10 12 11 12 8 8 7
18 18 16 15 14 15 15 16 18 19 19 20 20 20 18 18 16 17 18 18 14 14 13 10 8 5 6 7 7 11 12 14 14 12 9 10 5 14

GFSNE_850_spd_135.txt.gz
Wind_Speed
20 19 18 20 20 22 22 23 27 25 24 24 22 27 23 22 24 26 28 27 26 25 27 28 32 31 35 37 41 43 43 44 44 41 39 37 34 33
17 20 20 21 22 23 23 25 27 27 30 21 18 22 24 22 23 25 20 24 23 27 28 29 32 36 39 40 42 43 43 42 43 42 40 38 37 34
20 21 23 24 24 20 26 27 25 28 34 26 24 19 18 18 18 17 20 23 25 28 31 33 35 36 37 38 39 39 39 39 39 40 39 37 37 40
22 24 25 24 19 23 23 25 30 26 23 19 15 13 16 19 22 23 23 23 25 26 28 29 31 32 33 35 35 36 36 34 34 35 35 35 35 38
13 12 13 17 19 17 15 11 13 10 10 14 18 20 22 23 20 19 21 23 21 22 23 24 25 26 28 30 30 30 30 30 32 32 33 34 35 36
7 7 7 6 7 8 7 8 9 10 10 10 11 13 15 18 20 23 22 21 20 20 21 21 22 25 27 27 26 26 27 25 27 29 29 30 33 34
4 4 5 5 4 6 6 6 7 7 9 9 11 12 14 16 18 20 23 25 22 21 22 20 23 22 20 22 24 22 23 24 26 27 28 30 32 35
0 1 2 2 2 4 3 5 7 8 10 10 10 12 14 16 18 20 21 23 25 20 28 24 26 21 19 20 19 20 21 21 20 23 25 26 30 31
3 3 3 3 4 4 5 7 9 11 11 11 11 13 16 18 21 21 19 19 20 24 26 31 25 22 20 18 18 16 13 16 22 24 27 27 30 31
3 3 4 5 6 6 7 9 10 10 10 12 13 15 17 19 21 20 22 22 24 23 22 27 23 26 25 21 16 11 13 22 23 26 28 26 25 26
4 4 4 5 7 8 8 8 9 9 10 12 14 17 18 20 21 21 22 23 26 25 20 16 25 31 28 24 12 11 28 24 23 26 23 22 20 17
5 6 7 8 9 11 11 11 11 13 13 13 13 15 17 19 20 19 18 18 20 18 11 23 27 27 20 18 24 28 26 23 24 23 18 15 13 8
7 7 8 11 12 13 14 14 14 15 16 16 17 18 18 18 19 18 17 16 17 19 21 20 26 25 23 28 33 29 25 28 23 22 19 15 16 18
8 9 10 12 14 14 15 16 16 16 16 17 18 19 20 20 20 18 17 18 15 18 17 15 22 21 23 28 31 31 29 25 22 16 20 16 14 17
10 12 14 16 16 16 16 17 16 16 17 18 19 20 20 21 20 20 18 16 17 15 13 12 16 19 21 25 29 30 29 27 14 21 18 17 17 16
14 15 16 17 17 16 15 15 16 16 18 18 20 20 19 19 19 20 20 20 21 19 14 13 15 18 21 21 24 25 20 20 22 19 20 17 16 14
16 18 18 17 14 13 14 15 16 17 17 17 18 19 19 20 19 18 16 18 20 21 20 13 12 17 18 19 23 20 17 20 19 20 19 16 10 11
17 19 19 16 15 14 13 14 15 17 16 16 16 17 19 20 20 19 19 19 20 21 20 17 17 20 20 18 15 16 17 19 20 16 14 11 10 11
19 19 17 16 16 15 15 16 16 15 14 15 14 15 17 19 20 20 19 19 20 20 19 17 18 19 20 23 20 14 16 20 18 11 8 11 12 10
18 17 17 17 19 16 15 15 14 14 13 14 13 14 16 20 21 20 19 20 20 21 23 17 15 16 18 19 19 19 16 17 13 8 7 7 7 8
16 17 18 18 20 15 14 14 14 13 12 13 13 15 17 19 20 19 19 18 18 20 22 20 15 15 15 15 14 14 14 12 7 4 3 6 7 5
16 17 17 19 18 15 15 14 14 12 11 12 13 15 16 18 20 19 18 18 18 20 21 19 13 14 14 13 12 14 11 8 5 3 4 5 4 5
17 18 17 17 16 14 13 13 13 13 14 14 15 15 17 19 19 18 17 17 18 20 19 18 13 13 12 12 11 10 8 4 4 5 4 3 4 5

GFSNE_850_spd_138.txt.gz
Wind_Speed
18 17 18 19 17 17 12 14 19 16 17 16 16 18 25 24 23 22 22 25 30 30 29 29 27 25 30 31 31 34 40 42 42 41 42 42 40 38
13 14 17 17 17 18 19 17 16 18 21 16 18 21 26 23 22 25 25 24 26 25 24 25 27 28 30 33 36 39 40 40 40 39 38 40 40 39
14 15 18 20 21 21 21 20 18 20 27 23 19 24 22 23 20 15 17 19 19 20 24 29 28 30 32 34 36 36 35 36 37 37 37 36 35 35
16 18 20 21 21 21 22 20 23 22 22 22 18 14 13 17 16 19 22 24 22 24 24 24 25 28 28 30 31 30 31 33 33 33 33 33 34 35
9 12 12 11 12 13 16 17 16 14 12 11 9 12 13 17 18 17 17 18 18 20 20 21 22 23 24 26 27 28 28 29 29 28 29 30 30 30
8 6 7 7 8 7 7 7 8 9 9 11 9 10 11 13 15 17 17 17 17 18 19 19 19 21 23 25 26 26 26 25 25 26 26 26 27 29
2 2 4 5 6 6 5 5 6 6 7 7 8 10 12 13 15 17 19 20 18 19 18 17 21 20 20 20 20 20 21 21 22 19 20 23 26 28
1 1 2 2 2 2 3 4 4 4 5 5 7 8 10 12 15 18 20 22 23 19 26 24 23 20 18 17 18 20 21 18 15 19 24 28 30 29
2 3 3 4 4 3 3 4 5 6 7 8 9 11 12 14 16 18 18 18 20 22 26 28 23 20 18 17 17 18 15 13 19 26 28 29 29 24
2 2 3 3 3 4 5 6 7 7 8 9 10 12 14 16 16 18 19 22 22 20 19 24 20 21 19 18 15 13 10 17 26 25 24 25 19 22
3 3 3 4 6 5 5 7 8 9 10 11 12 13 14 16 16 19 20 22 24 23 15 12 18 27 24 17 6 17 22 22 20 23 21 22 19 20
5 5 5 6 8 7 7 7 7 7 8 10 11 13 14 15 17 18 19 20 20 18 13 23 25 23 15 9 25 22 26 23 25 20 19 19 20 21
6 7 7 8 9 10 10 10 11 11 11 12 12 13 15 16 17 18 17 18 19 20 18 16 22 23 22 27 29 31 29 29 26 20 15 17 19 17
8 8 8 10 12 13 13 13 14 13 13 13 13 13 15 16 17 16 16 16 17 21 18 13 20 20 22 28 33 31 30 26 24 15 20 19 18 18
9 10 12 13 14 13 13 14 13 13 13 14 14 14 16 17 18 19 17 17 16 16 14 13 15 17 20 25 30 31 31 29 12 25 22 21 22 20
11 11 13 14 15 16 14 14 14 14 15 15 14 14 15 16 17 19 19 19 20 16 12 9 11 14 20 22 24 27 24 20 23 22 23 22 19 17
13 14 14 16 17 14 13 14 14 15 15 15 13 14 15 16 16 17 18 19 20 20 19 15 11 15 17 19 22 19 20 19 19 24 23 22 11 14
15 15 16 18 18 17 14 13 14 16 16 13 12 12 14 16 17 17 17 19 20 19 20 20 18 17 19 17 13 18 17 19 23 21 19 19 15 10
17 16 17 16 16 18 17 15 14 14 12 12 11 11 13 15 18 18 18 19 19 19 18 19 19 16 20 23 22 17 23 20 23 19 13 14 16 12
17 16 15 15 16 17 18 15 14 13 11 12 10 10 12 16 18 19 19 20 20 20 20 19 16 13 16 21 23 20 17 20 19 16 13 10 13 13
17 17 15 15 16 17 19 15 14 13 12 13 10 11 12 15 17 19 20 18 19 18 20 21 17 13 15 15 17 17 17 15 14 13 13 15 15 12
16 17 16 16 16 17 16 15 14 12 12 12 12 12 13 15 17 20 20 19 18 18 20 21 16 13 14 13 15 15 16 12 8 9 10 11 11 11
17 17 17 17 17 15 15 13 12 11 11 13 14 14 15 16 16 19 19 17 17 19 20 21 16 11 13 12 14 14 12 7 8 6 8 10 9 12

GFSNE_850_spd_144.txt.gz
Wind_Speed
17 17 19 19 19 19 18 19 15 12 15 15 18 19 19 18 22 24 27 28 25 26 27 31 31 31 29 33 34 34 33 33 30 29 31 34 36 37
12 12 13 13 14 15 15 14 13 16 11 13 18 14 14 18 22 24 25 23 26 27 23 27 30 33 32 29 29 28 28 29 30 31 33 35 35 37
10 10 10 10 10 12 14 13 14 14 13 15 13 14 18 20 21 21 21 24 24 23 22 22 26 29 29 28 27 27 27 27 27 30 33 33 32 34
12 11 12 12 12 11 11 12 14 14 14 15 15 16 16 18 19 21 21 21 21 20 21 22 22 24 19 25 26 25 26 27 28 31 31 30 31 31
10 10 9 11 10 10 11 10 10 10 11 13 15 16 18 19 18 16 15 16 21 22 20 19 20 19 21 24 26 27 27 28 29 29 28 29 28 28
7 7 8 7 5 6 7 7 7 8 8 8 9 10 11 11 12 12 13 15 16 18 17 17 16 17 20 24 26 27 28 29 27 25 24 23 24 26
2 2 3 3 3 4 4 4 4 4 4 4 5 5 6 6 8 9 11 12 13 11 13 16 20 21 21 22 22 23 24 23 22 18 17 20 25 27
2 1 1 1 1 1 1 1 1 1 2 2 2 3 4 6 7 9 11 12 10 13 19 20 16 18 18 19 19 23 24 20 13 18 21 25 27 28
5 4 3 2 1 1 1 1 1 1 2 2 1 2 4 6 7 8 10 12 14 16 18 21 19 16 18 21 22 23 20 15 19 20 23 26 28 29
6 5 4 3 2 2 2 2 2 1 1 2 3 4 5 6 7 9 12 14 16 15 14 18 18 22 24 21 18 17 11 12 21 22 24 27 29 30
7 6 6 6 5 4 3 3 3 4 4 4 5 6 7 8 9 12 13 16 16 11 15 16 21 28 26 18 14 8 13 24 20 21 24 25 26 28
10 9 8 8 6 5 5 5 6 7 7 7 8 9 9 10 12 13 15 16 17 14 14 21 22 21 20 17 19 27 25 23 24 24 24 22 21 24
12 11 11 9 8 7 7 8 9 9 9 9 10 10 11 11 12 13 14 15 16 18 17 20 23 22 16 22 26 27 27 30 29 26 24 18 19 24
14 14 12 11 10 10 11 10 9 9 10 10 10 12 12 13 13 13 14 14 15 17 18 18 22 22 22 26 29 30 29 30 28 25 20 28 25 26
15 15 14 13 12 12 12 12 13 12 12 12 12 13 14 14 14 12 12 13 14 15 15 16 18 19 21 27 31 32 31 32 21 24 27 27 28 28
18 17 16 15 14 13 12 13 13 14 14 14 15 15 15 14 13 12 12 13 15 14 14 13 16 19 23 25 26 28 26 23 28 26 28 28 27 21
19 19 19 18 16 14 14 14 14 15 16 16 16 16 14 12 12 11 12 14 16 17 17 16 16 18 21 22 25 20 20 22 25 26 29 30 24 19
24 24 23 21 19 17 15 15 14 14 15 17 16 14 11 11 10 10 12 14 16 17 17 17 19 22 21 17 15 17 18 22 24 26 26 27 27 20
30 28 27 24 20 18 18 17 16 14 15 16 15 13 11 11 10 11 11 13 17 18 16 16 17 19 21 19 20 14 24 26 26 26 24 23 26 23
33 31 29 25 21 20 19 18 16 15 15 14 14 12 12 11 11 11 10 12 16 19 18 16 16 18 20 21 25 25 16 22 23 24 23 24 21 17
34 32 29 25 22 20 19 18 17 15 14 13 13 12 12 12 12 11 12 12 14 18 19 17 16 18 20 19 20 24 20 16 17 20 21 22 22 20
32 28 27 23 21 19 19 19 18 16 14 12 12 11 13 13 12 13 13 14 15 17 19 18 17 18 17 17 21 23 23 18 12 13 13 15 19 19
29 28 24 23 20 20 20 19 17 16 15 12 11 11 13 13 13 14 15 15 16 17 18 18 17 16 17 16 18 21 20 18 15 14 14 15 18 17